GFSMA_con_lsi_057.txt.gz
Lid_Strength_Index
-0 -1 -1 -1 -1 -1 -1 -0 -1 -1 -0 -1 -1 -0 -0 -0 -1 -1 -1 -2 -1 -1 -1 -1 -1 -2 -1 -2 -2 -2 -2 -1 -1 -1 -1 -1 -1 -1 -1 -1 -1 -1 -1
-0 -0 -0 -0 -0 -1 -1 -1 -0 -0 -0 -1 -0 -1 -1 -0 -1 -1 -1 -1 -2 -2 -1 -1 -1 -2 -1 -2 -2 -2 -2 -2 -1 -1 -1 -1 -1 -1 -1 -2 -1 -1 -1
-1 -1 -0 -0 -0 -1 -1 -1 -1 -1 -0 -0 -0 -1 -1 -1 -1 -0 -1 -1 -1 -2 -1 -1 -1 -2 -2 -1 -2 -2 -2 -2 -1 -1 -1 -1 -1 -1 -1 -1 -2 -2 -2
-1 -1 -0 -0 -1 -1 -0 -0 -0 0 0 0 0 -0 -0 -0 -0 -0 -1 -1 -1 -1 -1 -2 -2 -1 -2 -2 -2 -2 -2 -2 -1 -1 -1 -1 -1 -1 -1 -1 -1 -2 -2
-1 -0 -0 -0 -1 -0 -0 -0 0 0 1 0 0 0 -0 0 0 -0 -1 -1 -1 -1 -1 -1 -2 -2 -2 -2 -2 -2 -2 -1 -1 -1 -1 -1 -1 -1 -2 -2 -2 -1 -1
-1 -0 -0 -0 -0 -0 0 0 0 -0 0 0 1 1 1 -0 -0 -0 -0 -1 -1 -1 -1 -2 -1 -1 -2 -2 -2 -2 -1 -1 -1 -1 -1 -1 -1 -1 -1 -2 -1 -1 -1
-0 -0 -0 -0 -0 0 0 -0 0 1 1 0 1 2 1 0 -0 -0 -0 -0 -0 -0 -1 -1 -0 -1 -1 -2 -1 -2 -1 -1 -1 -1 -1 -1 -1 -2 -1 -2 -2 -1 -1
-0 -0 -0 0 -0 0 0 0 0 1 1 0 2 2 4 3 1 1 0 0 0 -0 0 -1 -1 -1 -1 -1 -1 -1 -2 -1 -1 -1 -1 -1 -1 -2 -1 -1 -1 -1 -1
-0 -0 -0 -0 0 0 1 0 1 1 2 1 1 2 5 6 3 1 1 0 1 0 -0 -0 -0 -0 -2 -1 -1 -2 -2 -2 -2 -1 -1 -1 -1 -1 -1 -1 -1 -1 -1
0 -0 -0 -0 -0 0 0 1 0 0 1 2 1 1 1 2 4 5 2 1 0 0 0 -1 0 -1 -2 -1 -2 -2 -1 -1 -1 -1 -2 -1 -1 -1 -1 -1 -1 -1 -1
0 0 -0 -0 0 0 -0 -0 0 0 0 1 2 1 2 1 1 3 5 3 1 1 0 0 -1 -0 -1 -2 -1 -1 -1 -1 -1 -1 -1 -1 -1 -1 -1 -1 -1 -1 0
1 0 0 0 -0 -0 -0 -0 -0 -0 0 0 1 1 2 3 3 3 4 3 3 1 0 -0 -0 -1 -2 -1 -2 -0 -1 -0 1 1 0 -0 -1 -1 -1 -1 -1 -0 -0
1 1 0 0 0 -1 -0 -0 -0 0 0 1 0 1 0 1 1 2 2 3 4 2 1 -0 -0 -1 -1 -1 -1 -1 -1 0 2 2 2 1 0 -0 -1 -1 -1 -1 -1
1 0 -0 -0 -0 -0 -0 -0 0 0 -0 0 0 0 0 1 -0 1 2 3 4 3 2 2 -0 -1 -1 -2 -1 -1 -1 1 2 3 2 2 1 1 -0 0 -0 -1 -0
0 -0 -0 -0 -0 -0 -0 -0 0 0 -0 -0 0 0 1 1 1 0 1 1 2 5 5 2 2 -0 -1 -1 -1 -1 -1 1 2 3 3 3 2 1 1 1 1 1 0
-0 -0 -0 -0 0 -0 -0 -0 -0 -0 0 0 1 0 0 0 0 0 1 1 1 3 4 2 1 -0 -1 -0 -1 -2 -1 0 3 3 3 3 3 3 2 2 2 2 1
-0 0 0 0 0 0 -0 -0 -0 1 1 1 0 1 1 0 1 0 0 1 1 1 3 2 1 0 0 0 -0 -1 -1 -1 1 3 3 4 4 3 3 3 3 2 2
-0 -0 0 0 0 0 -0 1 1 1 1 1 1 1 1 1 1 0 0 1 0 1 2 3 2 1 1 0 -0 0 1 -1 1 3 4 4 4 4 4 4 4 3 3
0 0 0 0 0 0 1 1 1 1 1 1 1 1 1 1 2 1 1 1 0 1 1 2 3 1 2 1 1 2 2 2 3 3 5 4 4 5 5 6 6 6 6
0 0 0 0 0 0 1 1 0 0 0 1 0 1 1 1 1 1 1 1 1 1 1 2 3 3 3 2 3 4 4 3 3 3 3 3 4 5 5 6 6 5 6
0 0 0 0 -0 0 1 1 0 0 1 1 1 1 1 1 2 1 1 1 1 1 2 3 3 3 3 4 4 4 5 4 4 3 3 3 3 4 5 5 4 4 6
0 0 1 1 1 1 8 6 3 0 1 1 1 1 1 2 2 4 4 5 2 1 2 3 3 3 3 4 4 4 4 5 6 3 4 4 2 4 5 4 5 5 7
1 1 1 1 1 0 8 7 7 0 1 1 1 1 1 1 1 0 4 5 5 5 2 1 2 2 3 3 4 4 4 4 5 4 4 6 3 4 3 4 6 7 7
1 0 1 0 0 1 8 9 7 0 0 1 1 1 1 1 0 1 1 1 1 0 0 0 1 1 2 2 3 3 3 4 4 4 4 7 5 5 4 2 7 7 7
1 1 0 1 1 1 8 8 5 0 1 1 1 1 1 1 7 6 1 2 1 1 6 6 6 8 9 8 5 4 5 5 6 5 3 5 5 4 2 2 4 7 6
1 1 1 1 3 1 9 10 5 1 2 2 2 3 7 2 9 8 1 1 2 2 1 2 3 6 5 6 7 4 4 5 6 5 3 4 4 3 4 1 1 3 3

GFSMA_con_lsi_060.txt.gz
Lid_Strength_Index
0 0 0 -0 -0 -0 -0 0 0 0 0 0 -0 0 0 -0 -0 -0 -0 -2 -2 -2 -2 -1 -2 -2 -1 -2 -2 -2 -1 -1 -1 -1 -1 -1 -2 -1 -1 -1 -1 -1 -0
0 0 0 0 0 -0 -0 0 0 0 0 0 0 0 0 0 -0 -0 -0 -0 -2 -2 -2 -1 -1 -2 -2 -2 -2 -2 -1 -1 -1 -1 -1 -1 -1 -1 -1 -1 -1 -1 -1
0 0 0 0 0 -0 0 0 0 0 1 0 1 0 0 0 0 0 -0 -0 -0 -1 -2 -1 -2 -2 -2 -1 -2 -2 -1 -2 -1 -1 -1 -1 -1 -1 -1 -1 -1 -1 -1
-0 0 0 1 0 0 0 0 1 1 1 1 1 1 0 0 0 -0 -0 -0 -0 -0 -1 -2 -2 -2 -2 -2 -2 -2 -2 -1 -1 -1 -1 -1 -1 -1 -1 -1 -1 -1 -1
-0 0 0 0 0 0 0 1 1 1 2 1 1 1 1 1 0 0 0 -0 -0 -0 -0 -1 -2 -2 -1 -2 -2 -2 -2 -2 -1 -1 -1 -1 -1 -1 -1 -2 -1 -1 -1
0 0 0 0 0 1 1 1 1 1 1 1 1 1 1 1 0 1 0 0 0 0 -0 -0 -0 -1 -2 -2 -1 -2 -2 -2 -1 -1 -1 -1 -1 -1 -1 -1 -2 -1 -1
0 0 1 0 0 1 1 1 1 2 2 1 2 2 2 1 1 1 0 0 0 0 -0 0 -0 -1 -1 -2 -1 -1 -2 -1 -1 -1 -1 -0 -1 -1 -2 -2 -1 -1 -1
0 0 1 1 1 1 1 1 1 2 2 1 3 3 5 4 2 1 1 1 1 0 0 -0 -0 -1 -1 -0 -1 -1 -2 -2 -1 -1 -1 -1 -1 -1 -1 -1 -1 -1 -1
0 0 0 0 1 1 1 1 1 2 3 2 1 3 6 7 4 2 2 1 1 1 1 0 -0 -0 -0 -0 -1 -1 -1 -1 -1 -1 -1 -1 -1 -1 -1 -1 -1 -1 -1
0 0 0 0 1 1 1 1 1 1 2 3 2 2 2 3 6 6 3 2 1 1 1 0 0 -0 -0 -0 -1 -1 -1 -1 -1 -1 -1 -1 -1 -1 -1 -1 -1 -1 -1
0 0 0 0 1 1 1 1 1 1 1 2 3 3 3 2 3 5 6 4 2 1 1 1 0 0 -0 -0 -0 -0 -1 -1 -1 -1 -1 -1 -1 -1 -1 -1 -1 -1 -1
1 1 0 0 0 1 1 1 1 1 1 1 2 2 3 4 4 4 5 5 5 3 1 1 0 0 0 -0 -1 -0 -0 0 1 1 1 -0 -1 -1 -1 -1 -1 -1 -1
2 1 1 1 1 0 1 1 1 1 1 1 2 2 2 2 2 3 4 4 5 3 2 1 1 0 -0 -0 -0 -1 -1 1 2 2 2 1 0 -0 -1 -1 -2 -1 -0
1 1 1 1 1 0 0 1 1 1 1 1 1 1 2 2 1 2 3 4 6 5 3 3 1 0 -0 -0 -0 -1 -0 1 2 2 2 2 1 1 0 -0 -0 -1 -1
1 1 1 1 1 0 1 1 1 1 1 1 1 1 1 1 1 1 2 2 4 7 6 3 3 1 -0 -0 -0 -0 -0 1 2 3 3 3 2 1 1 1 1 0 0
1 1 1 1 1 1 1 1 1 1 1 1 1 1 1 1 1 1 1 2 2 4 6 3 2 1 0 -0 0 -0 0 1 3 3 3 3 3 2 2 2 2 2 1
1 1 1 1 1 1 1 1 1 1 1 1 1 1 2 1 1 1 1 2 2 2 4 3 2 1 1 1 0 1 -0 0 3 4 3 3 4 4 3 3 3 2 2
1 1 1 1 1 1 1 1 1 1 1 2 2 2 2 1 2 1 1 2 2 2 3 4 2 2 1 1 1 1 1 -0 1 3 4 4 4 4 4 4 4 4 3
1 1 1 1 1 1 1 1 1 1 1 1 1 2 2 1 2 2 2 2 2 2 2 3 3 2 3 2 2 2 2 2 2 3 5 5 4 4 4 5 5 4 5
1 1 1 1 1 1 1 1 1 1 1 1 1 1 1 1 2 2 2 2 2 2 2 3 3 3 3 2 3 3 4 3 3 3 3 3 4 4 5 5 5 5 6
1 1 1 1 1 1 1 1 1 1 1 1 1 1 1 1 2 3 1 2 2 2 3 3 3 4 3 4 4 3 5 4 3 4 4 3 3 4 5 5 4 4 6
1 1 1 1 1 2 9 7 2 1 1 2 2 1 1 2 3 4 3 4 3 2 3 3 3 4 4 4 3 4 4 4 6 3 4 4 3 5 5 5 5 6 6
1 1 1 1 1 2 9 8 7 1 1 1 1 2 2 1 2 1 4 5 5 5 2 2 3 3 3 4 3 4 4 4 5 4 3 5 4 5 4 4 6 7 7
2 2 1 1 1 3 8 8 8 1 1 1 1 1 1 1 1 1 1 1 1 1 1 1 1 2 2 3 3 3 3 4 4 4 4 6 5 5 4 4 7 7 8
2 2 1 1 1 2 8 9 6 1 2 1 1 1 1 1 7 7 1 2 2 3 7 8 8 8 8 8 5 3 4 5 6 5 4 5 5 5 5 4 6 8 7
2 1 1 1 3 1 8 9 6 1 2 2 2 3 7 3 9 9 1 2 3 3 3 4 5 6 6 7 6 3 3 5 5 6 4 6 5 5 5 4 4 6 6

GFSMA_con_lsi_063.txt.gz
Lid_Strength_Index
1 1 1 1 1 0 0 0 0 0 0 0 0 0 0 0 0 1 -0 -2 -2 -2 -2 -2 -2 -2 -1 -1 -1 -1 -1 -1 -1 -2 -1 -1 -1 -1 -1 -1 -1 -1 -1
1 2 3 1 1 1 0 0 1 1 0 0 0 0 0 1 2 -0 -0 -0 -1 -2 -2 -2 -2 -2 -2 -1 -1 -2 -1 -1 -1 -1 -1 -1 -1 -1 -1 -1 -1 -1 -1
1 2 2 3 1 1 1 0 1 1 1 1 1 0 0 1 0 0 0 0 -0 -2 -2 -2 -2 -2 -2 -2 -1 -2 -2 -1 -1 -1 -1 -1 -1 -1 -1 -1 -1 -1 -1
1 1 2 2 2 1 1 1 1 1 1 1 1 1 1 0 0 1 0 0 -0 -0 -1 -2 -2 -2 -2 -2 -2 -1 -2 -2 -1 -1 -1 -1 -1 -1 -1 -1 -1 -1 -1
1 1 1 1 2 1 1 2 2 2 2 2 2 1 1 2 1 0 0 0 0 0 -0 -1 -1 -2 -2 -2 -2 -2 -2 -1 -1 -1 -1 -1 -1 -2 -1 -1 -1 -1 -1
1 1 1 2 1 2 2 2 2 2 2 2 2 2 2 2 1 1 1 0 1 -0 0 0 0 -1 -2 -2 -2 -2 -1 -2 -2 -1 -1 -1 -1 -1 -1 -1 -1 -1 -1
1 1 1 1 2 2 2 2 2 3 3 3 3 3 3 2 1 1 1 1 1 0 1 0 -0 -0 -0 -2 -1 -2 -2 -2 -2 -2 -1 -0 -1 -1 -1 -1 -1 -1 -1
1 1 2 2 2 2 2 2 2 3 3 2 4 4 6 4 2 2 2 2 2 1 0 0 -0 -0 -0 -0 -0 -1 -2 -2 -2 -1 -1 -1 -1 -1 -1 -1 -1 -1 -1
1 1 1 1 1 1 2 2 3 3 4 2 3 4 6 7 5 3 3 2 2 2 1 1 0 -0 -0 -0 -0 -1 -1 -1 -2 -1 -1 -1 -1 -1 -1 -1 -1 -1 -1
1 1 1 1 1 2 2 2 2 3 3 4 2 2 3 4 6 7 4 3 2 2 2 0 0 -0 -1 -0 -1 -1 -0 -1 -1 -1 -1 -1 -1 -1 -1 -1 -1 -1 -1
1 1 1 1 1 2 2 2 2 2 2 3 3 3 4 4 4 5 7 5 3 2 2 1 0 0 -0 -0 1 -0 -0 0 -0 -1 -1 -1 -1 -1 -1 -1 -1 -1 -1
2 1 1 1 1 2 1 2 2 2 3 3 3 3 4 4 4 5 5 5 5 3 2 2 1 0 0 0 1 -1 0 0 1 1 1 0 -1 -1 -1 -1 -1 -2 -1
3 2 1 1 1 1 1 1 2 2 2 3 3 3 3 3 3 4 4 5 5 4 3 2 1 0 -0 1 -0 -0 -0 0 1 2 2 1 0 -0 -1 -1 -1 -1 -2
2 1 1 1 1 1 2 2 2 2 2 2 3 3 3 3 2 3 3 4 6 5 4 3 2 1 1 0 -0 -0 1 1 2 3 2 2 1 0 0 -0 -1 -1 -1
1 1 1 1 1 2 2 2 2 2 2 2 3 3 2 2 2 2 3 3 4 7 6 4 4 1 0 -0 -0 -0 0 1 2 3 3 2 2 2 1 1 0 1 0
1 1 1 2 2 2 2 2 2 2 2 2 2 2 3 2 2 2 2 3 3 4 6 4 3 2 0 -0 -0 0 0 1 3 3 3 3 3 3 2 2 2 1 1
1 1 2 2 2 1 2 2 2 2 2 2 2 2 2 2 2 3 2 3 3 3 5 3 3 2 1 1 1 1 1 2 3 3 3 3 4 4 3 3 3 2 2
2 2 2 2 1 1 1 2 2 2 2 2 2 2 2 1 3 2 3 3 3 3 3 4 2 3 2 1 1 1 1 2 2 3 4 4 4 4 4 4 4 4 4
3 2 2 2 1 1 2 2 2 2 2 2 2 2 2 3 2 2 2 3 3 2 3 3 3 2 2 1 2 2 2 2 2 3 4 4 4 4 4 4 5 5 5
2 2 2 1 1 1 1 1 1 2 2 2 2 3 3 3 3 2 2 3 2 3 3 4 3 3 3 3 3 4 4 3 3 3 3 3 4 4 4 5 4 4 5
2 2 2 2 1 1 1 1 1 2 3 3 2 2 2 2 3 3 2 2 2 3 4 4 3 4 4 3 4 4 4 3 3 4 4 4 3 3 4 4 3 4 6
2 2 2 2 3 3 8 6 2 2 2 3 2 3 2 3 3 4 4 4 3 3 4 4 4 4 3 4 3 3 4 4 5 3 4 4 3 4 5 4 5 6 7
2 2 2 2 3 5 10 8 5 2 2 3 3 3 2 1 2 2 5 4 5 5 4 3 3 3 3 3 3 3 3 4 4 4 4 5 4 5 5 5 6 7 7
2 2 2 2 4 5 9 9 8 2 2 2 2 2 2 2 2 2 3 2 2 3 3 2 3 3 2 2 2 2 3 3 3 4 3 6 4 5 5 4 7 8 8
3 3 2 3 4 6 9 8 6 2 3 2 2 2 2 2 6 8 2 4 5 5 8 7 6 8 8 7 5 3 4 4 5 5 4 5 5 5 5 5 5 8 8
2 2 2 3 5 5 8 9 5 3 3 3 3 3 8 5 10 7 2 4 4 4 4 5 5 7 6 6 6 3 3 4 5 6 5 6 5 5 7 5 5 7 7

GFSMA_con_lsi_069.txt.gz
Lid_Strength_Index
1 0 0 0 0 0 0 0 0 0 0 0 0 0 0 0 0 -0 0 -1 -1 -1 -2 -2 -2 -2 -1 -1 -1 -1 -1 -1 -1 -2 -1 -1 -2 -1 -2 -1 -1 -1 -2
0 0 1 1 2 2 2 1 1 0 1 0 0 0 0 0 0 0 0 0 -1 -1 -2 -1 -2 -2 -2 -1 -1 -1 -1 -1 -1 -1 -1 -1 -1 -1 -1 -1 -1 -1 -2
1 2 3 3 2 3 3 3 2 1 1 1 1 1 1 0 0 0 -0 1 -0 -1 -2 -2 -2 -2 -2 -2 -1 -1 -1 -1 -1 -1 -1 -1 -1 -2 -2 -1 -1 -1 -1
2 3 3 4 4 4 4 3 4 3 2 2 3 2 1 1 1 0 0 1 0 -0 -1 -2 -2 -2 -2 -2 -2 -1 -1 -1 -1 -1 -1 -1 -1 -2 -2 -1 -1 -1 -1
2 2 3 3 4 4 4 4 4 3 3 3 3 3 3 2 1 0 1 1 1 0 1 -1 -1 -2 -2 -2 -2 -2 -1 -1 -1 -1 -1 -1 -1 -1 -1 -1 -1 -1 -1
2 3 3 3 4 4 4 5 4 4 3 3 2 3 3 2 2 2 3 1 1 1 1 0 0 -0 -2 -2 -2 -2 -2 -1 -1 -1 -1 -1 -1 -1 -1 -1 -2 -1 0
2 2 2 3 3 4 4 4 4 4 4 3 4 5 4 3 3 2 3 2 2 1 1 1 1 1 -0 -1 -1 -2 -2 -1 -1 -1 -1 -1 -1 -1 -1 -2 -2 -1 -1
1 2 3 3 3 4 5 4 4 5 4 4 5 5 7 5 5 3 3 2 2 2 1 1 1 1 0 0 -0 -2 -2 -1 -1 -1 -1 -1 -1 -1 -1 -1 -1 -1 -1
1 1 2 2 3 3 3 4 4 4 5 5 3 4 6 7 6 5 4 3 3 3 3 2 1 1 1 1 -0 -1 -2 -2 -1 -1 -1 -1 -1 -1 -1 -1 -1 -1 -1
1 0 2 2 2 2 3 3 3 4 5 4 4 3 3 4 6 7 5 4 3 3 3 3 2 1 1 1 -1 -1 -1 -1 -1 -1 -1 -1 -1 -1 -1 -1 -1 -1 -1
1 1 2 2 2 2 3 3 4 4 4 5 5 5 5 5 6 6 7 5 4 3 3 3 2 2 1 0 1 0 -1 -1 -1 -1 -1 -1 -1 -1 -1 -1 -1 -1 -1
1 1 2 2 2 3 3 3 3 3 4 5 5 5 5 5 6 6 6 6 6 5 3 3 3 2 1 1 -1 -1 -0 0 1 1 0 -0 -1 -1 -1 -1 -1 -1 -1
2 2 2 2 2 3 3 2 3 3 3 4 4 4 5 5 5 5 5 6 6 5 4 3 3 2 1 1 0 -0 -1 1 1 2 1 1 0 -0 -0 -1 -1 -1 -1
2 2 2 2 2 2 2 2 3 3 4 4 4 4 4 5 4 4 5 6 7 6 5 5 3 2 2 1 1 -0 1 1 2 2 3 2 1 1 1 0 0 -0 -1
2 2 2 2 2 2 2 2 3 4 4 4 4 4 5 4 4 4 4 5 5 7 7 5 4 3 2 1 0 1 1 1 1 3 3 2 2 2 2 2 1 1 0
2 2 2 3 3 2 2 2 3 4 4 4 4 4 4 4 4 3 4 4 4 5 7 5 4 2 1 1 0 1 1 2 2 3 2 2 3 3 3 2 2 2 1
2 2 2 3 2 2 2 3 3 4 3 4 3 3 3 3 3 3 4 4 4 5 6 3 2 2 3 2 1 2 1 2 2 3 2 2 3 4 3 3 3 2 2
2 2 2 2 2 2 3 3 3 3 3 3 3 3 3 3 3 4 4 4 4 4 4 4 4 2 2 1 1 1 1 1 2 3 3 4 3 4 4 5 5 4 3
2 2 3 2 3 3 3 4 2 2 3 3 3 3 3 3 4 4 4 4 3 3 4 4 3 2 2 1 2 2 2 2 2 3 4 4 4 4 4 4 4 4 5
2 3 2 2 3 3 3 3 2 2 3 3 3 3 3 3 3 4 3 3 3 4 3 4 3 3 3 2 2 3 3 3 3 2 3 3 4 3 4 4 4 4 6
3 3 3 3 3 3 2 2 2 3 3 3 3 3 4 3 3 4 3 3 3 3 3 4 5 3 3 3 3 3 4 3 3 3 3 3 3 3 3 4 3 4 6
4 4 4 3 3 2 8 7 4 3 3 3 4 5 4 4 4 4 5 4 2 3 4 4 6 4 4 3 3 3 4 4 4 3 4 4 3 3 3 2 4 6 7
5 5 4 3 3 4 9 8 6 2 3 4 5 5 3 2 3 3 6 5 5 5 4 3 5 4 3 3 2 3 4 5 4 3 4 6 3 4 3 4 6 7 7
5 5 4 4 5 6 10 9 8 4 4 4 5 3 3 2 2 2 3 2 2 3 3 3 3 4 3 2 2 2 4 4 3 3 3 5 4 5 4 4 7 7 8
5 5 5 5 6 6 11 11 6 4 4 4 4 3 3 2 6 8 2 2 3 5 8 8 7 8 9 7 4 3 3 3 5 4 3 5 4 5 4 5 5 7 8
4 4 4 4 7 7 11 11 5 2 3 3 3 4 9 4 10 9 2 3 4 5 5 4 4 6 6 6 6 2 2 3 4 5 4 4 4 4 5 4 4 5 6

GFSMA_con_lsi_072.txt.gz
Lid_Strength_Index
0 0 0 -0 -0 -0 -0 -0 -0 -0 -0 -0 -0 -0 -0 -0 -1 -1 -1 -1 -1 -1 -1 -2 -2 -1 -2 -2 -2 -1 -1 -1 -1 -1 -1 -1 -2 -2 -2 -2 -1 -1 -1
0 0 0 0 0 0 1 1 1 0 0 -0 0 -0 -0 -0 -1 -1 -1 -1 -1 -1 -1 -2 -2 -1 -1 -1 -2 -1 -1 -1 -1 -1 -1 -1 -2 -1 -1 -2 -2 -1 -1
0 1 1 1 1 1 2 2 2 1 1 0 0 0 -0 -0 -0 -1 -1 -1 -1 -1 -1 -2 -2 -1 -1 -1 -2 -2 -1 -1 -1 -1 -1 -1 -1 -1 -2 -2 -2 -1 -2
1 1 1 2 2 2 2 2 3 3 2 2 1 1 0 0 -0 -1 -1 -1 -1 -1 -1 -2 -2 -2 -2 -2 -2 -2 -1 -1 -1 -1 -1 -1 -1 -1 -2 -2 -2 -2 -2
1 1 2 3 3 3 3 3 3 3 4 3 1 1 1 1 1 -0 -0 -0 -1 -1 -1 -1 -1 -1 -2 -2 -2 -2 -2 -1 -1 -1 -1 -1 -1 -1 -2 -2 -2 -1 -1
1 1 2 3 4 4 4 4 3 3 3 3 2 1 1 1 1 0 0 -0 0 -0 -1 -1 -1 -1 -1 -2 -2 -2 -2 -1 -1 -1 -1 -1 -1 -1 -1 -2 -1 -1 -1
1 1 2 3 3 3 3 4 4 4 4 3 2 2 2 2 1 1 0 1 1 -0 -1 -1 -1 -1 -1 -1 -2 -2 -2 -1 -1 -1 -1 -1 -1 -1 -1 -1 -2 -2 -1
1 2 2 2 3 3 4 4 4 4 4 3 3 4 5 3 2 2 1 1 1 0 -0 -0 -0 -0 -1 -1 -1 -2 -2 -2 -2 -1 -1 -1 -1 -1 -1 -1 -1 -1 -1
1 2 2 2 2 2 4 4 3 4 4 4 3 3 5 6 4 2 2 1 1 1 0 0 -0 -0 -1 -0 -1 -1 -2 -2 -2 -1 -1 -1 -1 -1 -1 -1 -1 -2 -1
1 1 2 2 1 2 3 3 3 3 3 4 3 2 2 3 5 6 2 2 2 1 0 0 -0 -0 -1 -1 -1 -1 -1 -2 -2 -2 -1 -1 -1 -1 -1 -1 -1 -1 -1
1 1 1 1 1 2 2 2 3 3 3 3 3 3 3 3 3 4 6 4 2 1 0 0 0 -0 -0 -1 -1 -1 -1 -1 -1 -1 -1 -1 -1 -1 -1 -1 -1 -1 -1
1 1 0 1 1 2 2 2 2 3 3 3 3 3 3 3 4 4 5 4 4 2 1 0 1 -0 -1 -1 -1 -0 -0 0 1 1 0 -0 -1 -1 -1 -1 -1 -1 -1
2 1 1 1 1 1 2 2 2 3 3 3 3 3 3 3 3 3 3 4 4 3 2 1 0 0 -0 -1 -1 -1 -1 0 1 2 2 1 0 -0 -0 -1 -1 -1 -1
2 1 1 1 1 2 2 2 2 2 3 3 3 3 2 3 3 2 2 3 5 4 3 2 1 0 -0 -1 -1 -1 -1 1 2 2 2 2 1 1 1 0 -0 -0 -0
1 1 1 1 2 2 2 2 2 3 2 3 3 2 2 3 2 2 2 2 3 6 5 3 2 1 0 -1 -1 -1 -1 1 1 2 3 3 2 2 2 2 1 1 1
1 1 1 2 2 2 2 2 2 3 3 3 3 3 3 3 2 2 2 2 2 3 5 2 2 1 0 -0 -1 -1 -0 0 2 3 3 3 3 3 3 3 2 2 1
1 1 1 2 2 2 2 2 2 3 3 3 3 2 2 2 2 2 2 2 2 2 4 2 1 1 1 1 1 1 1 1 1 3 3 3 4 4 4 3 3 2 2
1 1 1 2 2 2 2 2 3 3 3 3 2 2 2 2 2 1 1 2 2 2 2 4 2 2 2 1 1 1 1 1 1 2 3 3 4 4 4 3 4 4 3
1 1 2 2 3 2 2 2 3 3 2 2 2 2 2 1 2 2 2 2 2 2 2 3 3 1 1 1 2 1 1 1 1 2 4 4 4 4 4 4 5 5 5
2 1 2 2 2 2 2 3 2 2 1 2 2 2 2 2 1 1 2 1 1 2 2 3 3 2 2 1 1 3 4 3 2 2 3 3 4 4 4 5 4 5 6
1 2 2 2 2 2 3 3 1 1 2 2 2 2 1 2 3 3 1 1 1 2 2 3 3 3 3 3 3 3 3 3 3 2 2 2 2 2 3 4 3 4 6
2 2 3 3 3 3 9 7 3 2 2 2 2 2 2 3 4 5 5 4 2 2 3 3 4 4 3 3 3 3 3 3 4 2 2 3 2 3 2 0 4 6 7
3 3 3 3 4 4 10 8 7 1 2 2 3 3 3 2 2 2 5 5 5 5 4 3 3 3 2 2 2 3 2 3 3 3 2 4 3 4 2 2 6 6 7
4 4 4 4 3 5 10 10 8 2 2 2 3 3 2 1 2 1 2 2 1 2 2 2 2 1 0 0 1 1 2 3 3 3 2 5 4 5 3 3 7 7 8
5 5 4 4 3 5 12 11 5 2 3 3 3 2 1 2 6 8 2 2 2 3 8 8 8 7 8 7 4 2 3 3 4 4 3 3 4 4 3 3 4 8 9
5 4 4 3 6 6 12 10 5 2 3 3 3 3 8 4 10 9 1 2 3 4 4 4 4 6 6 6 6 1 1 3 4 4 2 2 3 3 4 3 4 5 5

GFSMA_con_lsi_075.txt.gz
Lid_Strength_Index
-0 -1 -1 -1 -1 -1 -1 -1 -1 -1 -1 -1 -1 -1 -1 -1 -1 -1 -1 -1 -1 -1 -1 -1 -2 -2 -1 -1 -2 -2 -2 -1 -1 -1 -2 -2 -2 -2 -2 -2 -2 -2 -2
-1 -0 -0 -0 -1 -1 -1 -1 -1 -1 -0 -1 -1 -1 -1 -1 -1 -1 -1 -2 -1 -1 -1 -1 -2 -2 -2 -1 -1 -1 -2 -1 -1 -1 -1 -2 -1 -2 -2 -2 -2 -2 -2
-1 -1 -0 -0 -1 -1 -1 -1 -1 -1 0 -0 -0 -1 -1 -1 -1 -1 -1 -1 -1 -1 -1 -1 -2 -2 -1 -2 -1 -1 -2 -2 -1 -1 -1 -1 -2 -1 -2 -2 -2 -2 -2
-1 -0 -0 -0 -1 -1 -1 -0 0 1 1 1 0 -0 -0 -1 -1 -1 -1 -1 -1 -1 -1 -1 -2 -2 -2 -1 -1 -1 -1 -1 -1 -1 -1 -1 -1 -1 -2 -2 -2 -2 -2
-1 -0 -0 -0 -1 -0 -0 -0 0 1 1 1 0 0 -0 -0 -0 -1 -1 -1 -1 -1 -1 -1 -1 -1 -2 -2 -2 -1 -1 -1 -1 -1 -1 -1 -1 -1 -2 -2 -2 -2 -2
-1 -0 -0 -1 -1 0 0 0 0 0 1 1 1 1 0 -0 -0 -0 -0 -1 -1 -1 -1 -1 -1 -1 -2 -2 -2 -2 -2 -1 -2 -1 -1 -1 -1 -1 -1 -2 -2 -1 -2
-1 -1 0 -0 -0 0 0 0 0 1 1 1 1 2 1 0 0 0 -0 -0 -0 -1 -1 -1 -1 -1 -1 -1 -1 -2 -2 -2 -2 -1 -1 -1 -1 -1 -1 -2 -1 -1 -1
-0 -0 -0 0 -0 0 0 0 1 1 1 1 2 2 4 3 1 0 -0 -0 -0 -1 -1 -1 -1 -1 -1 -1 -2 -2 -2 -2 -2 -1 -1 -1 -1 -1 -1 -1 -1 -1 -1
0 0 -0 -0 -0 0 1 0 1 1 2 1 1 2 5 5 3 1 1 0 -0 -0 -0 -1 -1 -1 -1 -1 -1 -1 -1 -2 -2 -2 -1 -1 -1 -1 -1 -1 -1 -1 -1
-0 -0 -0 -0 -0 0 0 0 0 1 1 3 1 1 1 1 4 5 2 1 -0 0 -0 -0 -1 -1 -1 -1 -1 -1 -1 -1 -2 -2 -2 -1 -1 -1 -1 -1 -1 -1 -1
-0 -0 -0 -0 0 0 0 0 0 1 1 2 2 2 2 2 2 3 5 3 1 0 -0 -0 -1 -1 -1 -1 -1 -1 -1 -1 -1 -1 -2 -1 -1 -1 -1 -1 -1 -1 -2
0 0 -0 0 -0 0 0 0 0 1 1 1 1 1 2 3 3 3 4 3 3 1 0 -1 -0 -1 -1 -1 -1 -1 -0 -0 -0 -0 -1 -1 -1 -1 -1 -1 -1 -1 -1
1 1 0 0 0 0 0 0 0 0 1 1 1 1 1 1 1 2 3 3 3 1 1 -1 -1 -1 -1 -1 -1 -1 -1 0 1 1 1 1 0 -0 -1 -1 -1 -1 -1
1 0 0 0 0 0 0 0 0 1 0 1 1 1 1 1 1 1 2 3 4 3 2 2 -1 -1 -1 -1 -1 -1 -1 0 1 2 2 2 1 1 0 0 0 -0 -0
1 0 0 1 0 0 0 0 1 1 0 0 1 0 1 1 0 0 1 1 3 5 4 2 1 -0 -1 -1 -1 -1 -1 1 1 2 2 2 2 2 2 2 2 1 1
0 1 1 0 0 0 0 0 1 0 1 1 1 1 1 1 0 0 1 1 1 2 4 1 1 0 -0 -1 -1 -1 -1 1 1 2 2 3 3 3 3 3 2 2 1
1 1 1 1 1 1 0 1 0 1 1 1 0 1 1 0 1 1 1 1 1 1 3 2 1 -0 0 0 -0 -1 -0 -1 -1 3 2 4 4 4 3 4 3 2 2
1 1 1 1 1 1 1 1 1 1 2 2 1 1 1 1 1 0 1 1 1 1 2 3 2 1 1 0 -0 0 0 -1 -1 2 3 4 4 4 4 4 4 4 4
1 1 1 1 1 1 1 1 1 1 1 1 1 1 1 1 1 1 1 1 1 1 1 2 2 1 1 0 1 1 1 0 0 2 4 4 4 4 4 4 4 5 5
1 1 1 1 1 1 1 1 1 1 1 1 0 0 1 1 1 1 1 1 1 1 1 2 2 2 2 1 1 2 2 1 1 1 2 3 4 4 4 4 5 4 5
1 1 1 1 1 1 1 1 1 1 1 1 1 0 0 1 2 1 1 1 1 2 2 2 3 3 3 3 2 2 2 3 2 1 1 0 1 1 2 4 3 4 5
1 1 1 1 1 1 9 8 2 1 1 1 1 1 0 2 3 5 6 5 2 1 2 3 3 3 3 2 2 2 2 3 4 1 2 2 1 1 2 1 4 6 6
2 2 1 1 1 1 10 9 7 1 1 1 1 1 1 0 1 0 5 5 5 5 4 1 3 3 2 2 2 2 2 2 2 2 1 3 1 2 1 3 6 7 7
2 2 2 1 1 1 10 9 7 0 1 1 0 0 1 0 0 1 0 1 1 1 1 1 1 1 0 -0 0 1 1 2 1 1 -0 3 3 3 2 1 7 7 8
2 2 2 2 2 4 11 11 4 1 1 1 0 0 0 0 7 8 1 1 1 2 7 8 7 6 7 6 2 0 2 2 3 3 0 1 3 4 3 2 2 7 8
2 2 3 2 5 3 12 10 4 1 1 1 1 0 7 2 10 9 1 1 2 3 3 3 4 5 5 4 6 -0 1 3 3 3 1 2 2 3 4 2 1 1 4

GFSMA_con_lsi_078.txt.gz
Lid_Strength_Index
-1 -1 -1 -1 -1 -1 -1 -1 -1 -1 -1 -1 -1 -1 -1 -2 -2 -1 -2 -2 -2 -1 -1 -1 -1 -1 -2 -2 -2 -2 -2 -2 -2 -1 -1 -1 -2 -2 -2 -2 -2 -2 -2
-1 -1 -1 -1 -1 -1 -1 -1 -1 -1 -1 -1 -1 -1 -1 -2 -2 -2 -1 -2 -3 -2 -1 -1 -1 -2 -2 -1 -2 -1 -2 -2 -1 -1 -1 -1 -2 -1 -2 -2 -2 -2 -2
-1 -1 -1 -1 -1 -2 -2 -1 -1 -1 -1 -1 -1 -1 -1 -1 -1 -1 -1 -2 -2 -2 -1 -1 -1 -2 -2 -2 -1 -1 -2 -2 -1 -1 -1 -1 -1 -1 -2 -2 -2 -2 -2
-2 -1 -1 -1 -2 -1 -1 -1 -0 -0 -0 -0 -0 -0 -1 -1 -1 -1 -1 -1 -1 -1 -1 -2 -1 -1 -1 -2 -1 -1 -2 -2 -1 -1 -1 -1 -1 -1 -1 -2 -2 -2 -2
-1 -1 -1 -1 -2 -1 -1 -0 -0 -0 0 0 0 -0 -0 -0 -1 -1 -1 -1 -2 -1 -1 -1 -1 -1 -1 -2 -2 -2 -2 -2 -1 -1 -1 -1 -1 -1 -2 -2 -2 -2 -2
-1 -1 -1 -0 -0 -0 -0 -0 -0 -0 0 0 1 0 0 -0 -0 -0 -1 -1 -1 -1 -2 -2 -1 -1 -2 -2 -2 -2 -2 -1 -1 -1 -1 -1 -1 -1 -1 -2 -2 -2 -2
-1 -0 -0 -0 -0 0 0 -1 0 1 1 0 1 1 1 -0 -0 -0 -1 -0 -1 -1 -1 -1 -1 -1 -1 -2 -1 -1 -2 -2 -1 -1 -1 -1 -1 -1 -1 -1 -1 -1 -2
-1 -0 -0 0 -0 0 -0 -0 0 1 1 0 2 2 4 2 1 0 -0 -0 -1 -1 -1 -1 -1 -1 -1 -1 -2 -1 -2 -2 -2 -1 -1 -1 -1 -1 -1 -1 -1 -2 -1
-1 -1 -0 -0 -0 -0 1 0 0 1 2 1 0 2 5 5 2 1 0 0 -0 -0 -1 -1 -1 -1 -2 -2 -1 -1 -1 -1 -2 -2 -2 -1 -1 -1 -1 -1 -1 -1 -1
-0 -0 -0 -0 -0 -0 0 0 0 0 1 2 1 1 1 2 4 4 1 1 0 0 -0 -0 -1 -1 -1 -1 -2 -1 -1 -1 -2 -2 -2 -2 -1 -1 -1 -1 -1 -1 -1
-0 -0 -0 -0 -0 0 -0 -0 0 0 1 1 2 2 2 2 1 3 4 3 1 0 -0 -0 -1 -1 -1 -1 -1 -1 -0 -1 -1 -1 -2 -1 -1 -1 -1 -1 -1 -1 -1
0 -0 -0 -0 -0 -0 -0 0 -0 0 1 1 1 1 2 3 3 3 4 3 2 1 -0 -1 -1 -1 -1 -1 -1 -1 -0 -1 -0 -0 -1 -1 -1 -1 -1 -1 -1 -1 -1
1 0 0 0 0 -0 -0 -0 0 0 1 1 1 1 1 1 1 2 2 3 3 2 1 -0 -1 -1 -1 -1 -1 -1 -1 -0 0 0 0 -0 -0 -0 -1 -1 -1 -1 -1
1 -0 0 -0 0 -0 -0 -0 0 0 0 1 1 1 1 1 1 1 2 2 4 3 2 1 -0 -1 -1 -1 -1 -1 -1 0 1 1 1 1 1 0 0 -0 -0 -0 0
0 -0 -0 0 0 -0 -0 0 1 1 1 0 0 0 1 0 0 0 0 1 2 4 4 2 2 -1 -1 -1 -1 -2 -2 1 0 2 2 2 2 2 1 1 1 1 1
0 -0 0 0 0 0 0 1 1 0 1 1 1 0 1 0 0 0 0 1 1 2 4 1 1 -0 -1 -1 -0 -1 -1 0 1 2 2 2 3 2 2 2 2 2 1
0 0 0 0 1 1 0 1 0 1 1 1 0 1 1 -0 1 0 0 0 1 1 3 2 0 0 -0 -0 -0 -1 -1 -1 -1 2 3 2 3 3 3 3 3 3 2
0 0 0 1 1 1 0 1 1 1 1 1 1 1 1 1 1 -0 1 0 1 0 2 3 1 1 1 -0 -0 0 -1 -1 -1 2 3 3 4 4 4 4 4 4 4
0 0 0 1 1 1 1 1 1 1 1 1 1 1 1 1 1 1 1 1 1 1 1 2 2 1 1 0 1 0 -0 -0 -1 2 4 4 4 4 5 4 4 5 5
0 1 0 1 1 1 1 1 1 1 1 1 0 0 1 1 1 1 1 1 1 1 1 2 2 2 1 1 1 2 2 0 1 -1 1 1 3 4 5 5 4 4 6
0 0 1 1 0 1 1 1 1 1 1 1 0 0 -0 1 2 1 1 0 0 1 2 2 2 2 2 2 3 2 2 1 1 0 0 -0 0 -1 1 4 3 3 5
1 1 1 1 1 1 9 8 2 1 1 1 1 1 0 2 2 5 6 6 3 1 1 2 3 3 2 2 2 2 2 3 4 0 1 1 0 1 -0 -1 4 5 6
1 1 1 1 1 1 10 9 7 1 1 1 1 1 1 0 1 0 5 6 6 5 5 0 2 2 2 2 1 2 2 2 3 2 1 2 0 1 0 1 6 6 7
2 2 1 1 1 1 11 10 8 0 1 0 0 0 0 0 0 0 0 0 0 0 0 0 0 1 0 0 0 0 1 1 1 1 0 3 2 2 1 2 7 7 8
2 2 1 1 2 3 11 11 5 0 1 1 0 0 0 0 7 8 1 1 1 1 5 8 6 6 7 7 2 1 2 3 3 2 0 2 2 3 2 2 3 8 8
2 2 2 2 4 2 13 11 4 1 1 1 0 0 8 2 10 9 0 1 2 2 1 3 3 4 5 3 6 -0 1 3 3 3 0 2 2 3 3 2 2 2 2

GFSMA_con_lsi_084.txt.gz
Lid_Strength_Index
0 -0 -0 -0 -0 -0 -0 0 0 0 0 -0 -0 -0 -0 -0 -0 -0 -0 -2 -2 -2 -2 -1 -1 -2 -1 -1 -2 -2 -1 -1 -1 -1 -1 -1 -1 -2 -2 -2 -2 -2 -1
-0 0 0 0 0 -0 -1 -0 0 0 0 0 0 0 0 -0 -0 -0 -0 -1 -2 -2 -2 -2 -2 -2 -2 -1 -1 -2 -2 -2 -1 -1 -1 -1 -1 -1 -2 -2 -2 -2 -2
-0 -0 0 0 0 -1 -0 -0 -0 0 0 0 1 0 0 -0 -0 -0 -0 -0 -1 -1 -2 -2 -2 -2 -2 -1 -2 -2 -2 -2 -2 -1 -1 -1 -1 -1 -1 -2 -2 -2 -2
-0 -0 0 0 -0 -0 0 0 0 1 1 1 1 1 1 0 0 0 -0 -0 -0 -0 -1 -1 -2 -2 -2 -2 -2 -2 -2 -2 -1 -1 -1 -1 -1 -1 -1 -1 -1 -1 -2
-0 0 0 0 -0 0 0 0 1 1 1 1 1 1 1 1 1 0 0 0 -0 -0 -0 -1 -1 -1 -1 -2 -2 -2 -1 -2 -1 -1 -1 -1 -1 -1 -1 -1 -1 -1 -1
-0 -0 0 0 -0 0 1 1 1 1 1 1 1 1 1 1 0 1 1 0 0 0 -0 -0 -0 -1 -1 -1 -2 -2 -2 -1 -1 -2 -1 -1 -1 -1 -1 -1 -1 -1 -1
-0 -0 0 0 0 1 1 1 1 1 2 1 2 2 2 1 1 1 0 0 0 0 -0 -0 -0 -0 -0 -1 -1 -2 -2 -2 -1 -1 -1 -1 -1 -1 -1 -1 -1 -1 -1
-0 0 0 1 0 1 1 1 1 2 2 1 3 3 5 4 2 1 1 1 1 0 0 0 -0 -0 0 -0 -0 -1 -2 -2 -1 -1 -1 -1 -1 -1 -1 -1 -1 -1 -1
-0 0 0 0 0 1 1 1 1 2 3 2 1 3 6 7 4 2 2 1 1 1 1 0 0 -0 -0 0 -0 -1 -1 -1 -1 -1 -1 -1 -1 -1 -1 -1 -1 -1 -1
0 0 0 0 0 1 1 1 1 1 2 3 2 1 2 3 6 6 3 2 1 1 1 1 1 0 -0 0 -1 -1 -1 -1 -2 -1 -1 -1 -1 -1 -1 -1 -1 -1 -1
0 -0 0 0 1 1 1 1 1 1 1 2 2 2 2 2 3 5 6 4 2 1 1 1 1 0 0 -0 -0 -1 -0 -0 -1 -1 -1 -1 -1 -1 -1 -1 -1 -1 -1
1 0 0 0 0 1 1 1 1 1 1 1 2 2 3 4 4 4 5 5 4 3 1 1 1 0 0 -0 -1 -0 -0 0 0 0 -0 -0 -1 -1 -1 -1 -1 -1 -1
1 1 1 1 1 1 1 0 1 1 1 2 2 2 2 2 2 3 3 4 5 3 2 1 1 0 0 0 -0 -1 -0 0 1 1 1 0 -0 -1 -1 -1 -1 -1 -1
2 1 1 1 1 1 1 1 1 1 1 1 1 1 2 2 2 2 3 4 5 4 3 3 1 1 0 0 -0 -0 0 1 1 1 2 1 1 0 -0 -0 0 -0 -0
1 1 1 1 1 1 1 1 1 1 1 1 1 1 1 1 1 1 2 2 4 6 6 3 3 1 0 0 -0 -0 0 1 1 1 2 2 1 1 1 1 1 1 1
1 1 1 1 1 1 1 3 1 1 1 1 1 1 1 1 1 1 2 2 2 4 6 3 3 1 1 0 0 0 0 1 2 1 2 2 2 2 2 2 2 2 2
1 1 1 1 1 1 1 1 1 1 2 2 1 2 2 1 2 1 1 2 2 3 4 3 2 1 1 1 1 0 0 0 1 3 1 2 3 3 3 2 3 2 2
1 1 1 1 1 1 1 1 2 1 2 2 2 2 2 1 2 1 2 2 2 2 3 4 3 2 2 1 1 1 1 -1 0 3 2 3 4 4 5 4 4 4 4
1 1 1 1 1 1 1 1 1 2 2 2 2 2 2 2 2 2 2 2 2 2 2 3 3 2 2 1 2 1 1 1 1 3 4 3 4 4 5 5 6 5 6
1 1 1 1 1 1 1 1 1 2 2 1 1 1 1 2 2 2 2 2 2 2 2 3 3 3 2 2 1 3 3 2 1 0 2 2 3 3 4 4 4 5 7
1 1 1 1 1 1 1 1 1 2 2 2 1 1 1 1 3 2 2 2 2 3 3 3 4 3 3 3 3 2 3 2 1 1 1 1 2 2 3 5 3 4 6
1 1 1 1 2 1 5 7 3 2 2 2 2 2 2 5 7 8 7 7 2 2 3 3 4 4 3 3 2 2 3 3 4 1 2 2 0 1 2 1 4 6 7
1 2 2 2 2 1 7 9 8 1 2 2 2 2 2 2 4 4 7 6 7 6 4 2 3 3 3 2 2 3 3 3 3 2 2 3 1 2 0 2 6 7 7
2 2 2 2 2 2 8 11 9 1 2 2 1 1 2 2 1 1 2 2 1 2 2 1 2 2 1 1 1 1 2 2 2 1 1 4 2 2 1 2 7 8 8
3 3 1 2 2 2 11 12 7 2 2 2 1 1 1 1 7 7 2 2 2 3 8 8 8 9 9 8 3 1 3 3 4 3 1 3 3 3 2 3 4 7 8
3 3 2 2 2 2 13 13 5 2 2 2 2 2 7 2 10 8 2 2 3 2 2 2 1 3 5 4 7 1 1 3 4 4 1 3 3 3 4 2 3 5 6

GFSMA_con_lsi_087.txt.gz
Lid_Strength_Index
0 0 0 0 0 0 1 1 0 1 1 1 1 1 1 1 1 1 0 -2 -2 -2 -2 -2 -1 -1 -1 -1 -1 -2 -2 -2 -2 -2 -1 -1 -1 -2 -2 -2 -2 -2 -1
1 0 0 1 1 1 0 1 1 1 1 1 1 1 1 1 1 1 1 -0 -1 -2 -2 -2 -2 -2 -1 -1 -1 -2 -2 -2 -2 -2 -1 -1 -1 -1 -2 -2 -2 -1 -2
1 0 0 1 1 1 1 1 2 1 1 1 1 1 0 1 1 1 1 2 -0 -1 -2 -2 -2 -2 -1 -1 -1 -2 -2 -1 -2 -2 -1 -1 -1 -1 -1 -1 -2 -2 -2
-0 0 1 1 1 0 1 1 2 2 1 1 2 1 1 1 1 1 2 1 2 -0 -1 -1 -1 -2 -2 -2 -2 -2 -2 -1 -1 -2 -2 -1 -1 -1 -1 -1 -1 -1 -1
0 0 0 1 1 1 1 1 1 2 2 2 1 1 1 1 1 1 1 2 1 0 1 -0 -1 -1 -1 -2 -2 -2 -2 -2 -1 -2 -2 -2 -1 -1 -1 -1 -1 -1 -1
0 0 1 1 1 1 2 2 2 1 2 2 1 2 2 1 1 1 1 1 1 0 0 0 -0 -0 -1 -1 -1 -2 -2 -2 -1 -2 -1 -1 -1 -1 -1 -1 -1 -1 -1
0 1 1 1 1 1 2 2 1 2 2 1 2 3 2 1 1 2 1 1 1 1 0 -0 0 0 -0 -1 -1 -1 -2 -2 -2 -2 -1 -1 -1 -1 -1 -1 -1 -1 -1
0 0 0 1 1 1 1 1 2 2 2 1 3 4 5 4 2 2 2 2 1 1 1 0 1 0 0 0 0 -1 -1 -2 -2 -2 -1 -1 -1 -1 -1 -1 -1 -1 -1
0 0 0 0 1 1 2 1 1 2 3 2 2 3 6 7 4 3 3 2 2 1 1 1 1 0 -0 1 -0 -1 -1 -2 -2 -2 -1 -1 -1 -1 -1 -1 -1 -1 -1
0 1 0 0 1 1 2 2 1 1 2 3 2 2 3 3 6 6 3 2 2 1 2 2 1 0 1 0 -0 -1 -0 -1 -2 -2 -1 -1 -2 -2 -1 -1 -1 -1 -1
0 0 1 1 1 1 1 1 1 1 1 2 3 3 3 2 3 4 6 4 3 2 2 2 1 1 1 0 0 0 -0 -0 -0 -1 -1 -1 -1 -1 -1 -1 -1 -1 -1
2 1 0 0 1 1 1 2 1 1 1 2 2 2 4 4 4 4 5 5 5 3 2 2 1 1 1 1 -0 -0 1 1 1 1 0 -0 -1 -1 -1 -1 -1 -1 -1
3 2 1 1 1 1 0 1 1 1 1 2 2 3 2 2 2 3 4 4 5 4 3 2 2 1 1 1 1 -0 0 1 1 2 1 1 0 -0 -1 -1 -1 -1 -1
1 2 1 1 1 1 1 1 1 1 1 1 3 2 2 1 1 2 3 4 6 6 4 4 2 2 1 1 0 -0 1 1 2 2 2 2 1 1 -0 -0 -0 0 -0
1 2 1 1 1 1 1 1 1 1 1 1 1 2 2 1 1 1 2 3 5 7 6 3 4 2 1 1 1 1 1 1 2 2 2 2 2 1 1 1 1 1 1
1 1 1 1 1 1 1 1 1 3 2 2 1 4 2 1 1 1 2 3 3 4 7 4 3 2 1 0 1 1 1 2 2 3 2 2 3 2 2 2 2 2 2
1 1 1 1 2 2 2 1 1 2 2 2 1 2 3 3 2 1 3 4 3 4 5 4 3 2 3 2 2 1 1 1 1 3 3 2 3 3 3 2 2 2 2
1 1 1 1 1 1 2 1 2 1 2 2 2 2 2 1 2 2 3 4 3 4 4 5 4 4 3 2 2 2 1 -0 1 2 4 3 4 4 4 4 3 4 4
1 1 1 1 1 1 1 2 1 1 2 2 2 2 2 2 2 2 4 3 3 3 3 4 4 3 3 2 3 3 2 2 1 3 4 3 4 4 5 5 5 5 6
2 2 1 1 1 1 1 1 1 1 1 2 2 2 2 2 2 2 4 3 3 3 4 4 4 4 4 3 3 4 3 2 1 1 3 4 4 4 4 4 5 5 7
1 1 1 1 1 1 1 1 2 2 2 2 2 1 2 3 4 3 3 3 4 4 4 4 4 4 4 4 4 3 3 2 2 1 2 3 3 3 3 4 3 3 6
2 2 2 2 2 1 4 7 5 2 2 2 2 2 2 6 6 7 7 6 3 4 4 4 4 4 4 4 4 3 4 4 5 2 2 2 2 3 3 3 4 5 7
3 3 3 2 2 1 5 6 7 4 2 2 2 2 3 3 5 5 9 9 7 5 4 3 4 4 4 3 4 4 4 5 4 2 1 3 2 2 1 2 6 6 7
3 3 4 3 3 3 5 7 7 4 2 2 2 2 3 5 5 5 5 4 4 4 4 3 3 3 3 2 3 2 3 3 3 2 2 4 2 2 2 2 7 8 8
3 4 4 4 4 4 6 6 6 3 2 2 2 2 3 3 9 10 4 4 5 6 9 9 8 9 10 9 5 3 3 3 4 3 2 2 2 3 2 2 4 8 9
4 3 4 4 5 5 6 6 7 3 3 2 2 2 7 4 11 10 3 3 4 5 5 5 5 6 6 5 8 3 3 4 4 4 2 3 3 3 4 2 3 5 6

GFSMA_con_lsi_093.txt.gz
Lid_Strength_Index
2 1 0 0 0 1 1 1 1 1 1 1 1 1 2 2 2 2 2 -0 -1 -2 -1 -2 -1 -1 -1 -1 -1 -1 -1 -2 -2 -2 -1 -1 -2 -2 -1 -2 -2 -1 -1
2 1 0 0 0 1 1 1 1 2 2 2 2 2 2 2 2 2 2 2 -1 -1 -1 -1 -2 -1 -1 -2 -2 -1 -1 -1 -2 -2 -1 -1 -1 -1 -1 -2 -1 -1 -1
0 0 0 1 0 0 0 1 1 2 2 2 2 2 2 2 2 1 2 2 1 -1 -1 -1 -1 -1 -2 -2 -2 -2 -2 -1 -2 -2 -1 -1 -1 -1 -1 -1 -1 -1 -1
-0 0 1 1 0 1 1 2 2 3 2 2 2 2 2 2 1 1 1 2 3 1 -1 -1 -1 -1 -1 -2 -2 -2 -2 -2 -1 -1 -1 -1 -1 -1 -1 -1 -1 -1 -1
-0 -0 0 0 1 1 2 2 3 4 4 3 3 2 2 2 1 1 2 2 2 2 2 0 -1 -1 -1 -1 -2 -2 -2 -2 -1 -1 -2 -1 -1 -1 -1 -1 -1 -1 -1
0 1 1 1 0 2 2 3 3 3 3 4 3 2 2 1 1 1 1 2 2 2 2 2 2 -0 -1 -1 -1 -1 -2 -2 -2 -2 -1 -1 -1 -1 -1 -1 -1 -1 -1
0 0 0 1 1 1 2 3 3 3 4 3 3 3 2 2 2 2 2 2 2 2 2 2 2 1 1 -1 -1 -1 -1 -2 -2 -2 -1 -1 -1 -1 -1 -1 -1 -1 -1
0 0 0 1 1 1 2 2 3 4 3 3 4 4 5 4 3 2 2 2 2 2 2 2 1 1 1 1 1 -1 -1 -2 -2 -2 -1 -1 -1 -1 -1 -1 -1 -1 -1
1 0 0 0 0 1 1 2 2 3 3 3 2 4 6 7 4 3 3 2 2 2 2 2 1 1 0 1 1 -0 -1 -1 -2 -2 -2 -2 -1 -1 -1 -1 -1 -1 -1
1 1 0 0 1 1 1 2 2 2 3 3 3 2 2 3 6 6 3 2 2 2 2 2 2 1 1 1 0 -0 0 -1 -2 -2 -2 -2 -2 -1 -1 -1 -1 -1 -1
2 2 0 0 1 1 1 1 2 2 2 3 3 3 3 3 3 4 6 5 2 2 1 1 2 2 1 1 1 1 1 1 0 -0 -1 -1 -2 -1 -1 -1 -1 -1 -1
2 1 1 0 0 1 1 1 1 2 2 2 2 2 3 4 4 4 5 5 4 3 2 2 2 1 2 2 1 0 1 1 2 1 1 0 -1 -1 -1 -1 -1 -1 -1
4 3 2 2 1 1 0 1 1 1 1 2 2 2 2 2 2 3 4 5 5 3 3 2 1 2 2 2 2 1 0 2 2 2 2 2 1 -0 -0 -1 -1 -1 -1
2 1 2 2 1 1 0 1 1 1 1 1 1 1 2 2 1 2 3 5 6 6 4 3 2 2 2 2 2 1 1 2 2 3 3 3 2 1 1 0 -0 -0 -0
1 1 1 1 1 1 1 1 1 1 1 1 1 1 1 1 1 1 2 3 4 7 5 3 3 3 2 2 2 2 2 2 2 3 3 3 3 2 2 2 1 1 1
2 1 2 1 1 1 1 1 1 1 1 1 1 1 1 1 1 1 1 2 4 5 6 3 4 3 3 2 2 2 2 2 3 3 3 3 3 2 3 3 3 2 1
2 2 1 1 1 1 1 2 2 1 2 1 1 1 2 1 2 2 2 2 3 3 5 3 4 3 3 3 3 3 2 2 2 3 3 3 4 3 3 3 3 3 2
1 1 1 1 1 1 1 2 2 2 2 2 2 2 2 1 2 2 2 3 2 2 3 4 4 4 4 4 3 3 2 1 2 2 4 4 5 5 4 5 4 4 4
2 1 1 1 1 1 1 1 1 1 1 2 1 2 2 2 2 2 2 2 2 2 2 3 4 4 4 4 4 4 4 3 2 2 4 4 5 5 5 5 5 5 6
2 2 1 1 1 1 2 1 1 2 2 1 1 1 1 2 2 2 2 2 2 2 3 4 4 5 5 4 4 5 5 4 3 2 2 3 4 5 5 4 4 4 6
2 1 1 2 2 2 1 2 2 2 3 2 1 1 1 1 2 2 2 2 2 3 3 4 5 6 6 4 4 5 5 5 4 3 4 3 3 3 4 4 3 3 5
2 2 2 2 2 1 4 4 2 2 2 2 2 2 2 3 2 6 6 5 2 2 4 3 4 6 6 5 5 5 6 6 6 3 3 3 2 3 2 3 4 4 6
4 3 2 2 2 3 5 5 4 3 3 3 3 3 3 1 3 1 5 6 7 8 6 4 4 4 5 5 5 6 6 6 5 5 3 4 2 3 3 3 5 5 6
4 4 3 3 3 3 5 6 5 3 4 3 3 2 2 2 2 2 2 4 3 4 4 4 3 3 3 4 3 4 4 5 4 3 3 5 3 2 2 2 6 7 8
4 4 3 4 4 3 6 6 6 4 4 5 3 3 4 3 5 9 2 3 4 5 10 8 8 9 10 9 6 4 5 4 4 3 2 4 3 3 2 3 3 7 8
3 2 2 2 3 3 7 7 6 4 5 5 5 4 6 6 8 9 3 2 5 6 6 7 6 9 8 8 8 4 3 3 4 4 2 3 3 3 4 2 2 4 5

GFSMA_con_lsi_096.txt.gz
Lid_Strength_Index
0 0 -0 -0 -0 -1 -0 -0 -0 -0 0 1 0 0 0 0 1 1 1 -0 -1 -2 -2 -1 -1 -1 -1 -2 -2 -1 -1 -1 -2 -2 -2 -2 -2 -1 -1 -2 -2 -2 -2
0 1 1 0 -0 -0 -1 -0 0 0 1 1 1 1 1 1 1 1 1 1 -0 -1 -2 -1 -1 -1 -1 -1 -2 -2 -1 -1 -1 -2 -2 -2 -2 -2 -2 -2 -2 -2 -1
1 1 2 1 0 -1 -0 -0 0 1 1 1 1 1 1 1 1 1 0 1 1 -1 -2 -2 -1 -1 -2 -2 -2 -2 -2 -1 -1 -1 -2 -1 -1 -2 -2 -2 -2 -2 -1
0 1 1 1 -0 -0 -0 0 1 1 1 1 1 0 0 0 -0 -0 -1 -0 0 1 -1 -1 -1 -1 -1 -2 -2 -2 -2 -2 -2 -1 -2 -2 -1 -1 -2 -2 -1 -1 -1
-0 -0 0 0 -0 -0 0 1 1 2 3 3 2 2 1 1 0 -0 -0 -0 0 0 1 -0 -1 -1 -1 -2 -1 -2 -2 -2 -2 -2 -2 -2 -2 -1 -1 -2 -1 -1 -1
-0 -0 0 0 -0 0 1 2 2 3 3 3 3 2 2 1 0 0 0 -0 -1 0 1 1 0 -1 -1 -1 -1 -2 -2 -2 -2 -2 -2 -1 -1 -2 -1 -1 -1 -1 -1
-0 0 0 0 1 1 1 1 2 2 2 2 2 2 1 1 1 0 -0 -0 -0 -0 0 1 1 0 -1 -1 -1 -1 -1 -2 -2 -2 -1 -1 -1 -2 -1 -1 -1 -1 -1
-0 0 0 0 0 1 1 1 1 2 2 3 3 3 5 3 2 1 0 0 0 0 0 1 0 0 -0 -0 -1 -1 -1 -1 -1 -2 -2 -1 -1 -2 -1 -1 -1 -1 -1
1 0 0 0 0 0 1 1 1 2 3 2 2 3 5 6 4 1 1 1 1 0 0 0 0 -0 -1 -1 -1 -1 -1 -1 -1 -2 -2 -2 -2 -2 -2 -1 -1 -1 -1
1 1 1 1 0 0 1 1 1 1 2 3 2 1 1 2 5 6 2 1 1 1 0 0 0 -0 -1 -1 -1 -0 -0 -1 -1 -2 -2 -2 -2 -2 -2 -1 -1 -1 -1
2 1 1 0 0 0 0 1 1 1 1 2 2 2 2 2 2 4 6 4 2 1 0 0 -0 -0 -0 -1 -1 -0 0 0 -0 -1 -1 -1 -1 -2 -2 -1 -1 -1 -1
2 3 2 0 0 0 0 1 1 1 1 1 1 2 2 3 4 4 5 4 4 2 1 0 0 -0 -1 -1 -0 1 1 1 2 1 1 -0 -1 -1 -1 -1 -1 -1 -1
3 2 0 0 0 0 0 0 1 1 1 1 1 2 1 2 2 2 3 4 4 2 2 1 0 -0 -0 -1 -0 1 1 2 3 3 2 1 0 -0 -1 -1 -1 -1 -1
1 0 1 1 1 -0 0 0 1 1 1 1 1 1 1 1 1 2 2 3 5 4 3 3 0 0 -0 -0 -0 1 0 3 3 3 3 2 2 1 1 0 -0 -0 -0
1 1 0 1 0 0 0 0 1 1 1 1 1 1 1 1 1 1 1 2 4 6 5 3 2 0 0 0 0 0 -0 2 3 4 3 3 2 2 1 1 1 1 1
1 1 1 1 1 0 0 0 1 0 1 1 1 1 1 1 1 1 1 1 2 3 5 2 2 1 0 1 0 0 1 2 3 4 3 3 3 3 3 2 2 2 2
1 1 1 1 1 1 0 1 1 1 1 1 1 1 1 1 1 1 1 1 2 2 4 3 2 1 1 1 1 1 1 1 1 4 3 3 4 4 4 3 3 3 3
1 1 1 1 1 1 1 1 1 1 1 2 1 1 1 1 1 1 1 2 2 2 3 4 2 2 2 2 2 2 2 0 -0 2 3 3 4 5 5 5 4 4 4
1 1 1 1 1 1 1 1 1 1 1 1 1 1 1 1 2 2 1 2 2 2 2 3 3 2 3 3 3 2 2 0 1 2 4 4 5 5 5 6 5 5 6
2 1 1 1 1 1 1 1 1 1 1 1 1 1 1 1 2 2 2 2 2 2 2 3 3 3 3 3 3 3 3 2 2 1 2 3 4 4 5 6 5 4 6
1 1 1 1 1 1 1 1 1 1 1 1 1 1 1 1 1 1 1 2 2 2 3 3 4 4 4 4 3 3 2 3 3 1 1 1 1 2 2 4 3 3 5
2 2 2 1 1 1 3 4 2 1 1 1 2 1 1 1 1 4 5 5 2 2 3 3 3 4 3 3 3 3 3 4 4 1 1 1 1 2 1 1 4 5 6
2 2 2 1 2 1 5 6 5 1 1 1 1 1 1 1 1 1 3 5 7 6 4 2 3 3 3 3 2 4 3 3 3 2 1 3 1 2 -0 1 4 6 7
3 3 2 2 2 1 5 6 5 1 1 1 1 1 1 1 1 2 2 1 1 3 3 3 1 2 1 1 2 2 2 2 3 2 1 4 1 2 0 0 7 7 7
3 3 2 2 3 2 6 6 5 2 2 2 1 1 1 1 4 7 5 4 2 2 7 8 7 8 10 9 5 2 3 3 4 3 2 2 2 2 1 1 1 7 7
3 3 3 3 3 3 7 7 5 2 3 3 2 2 5 4 6 7 6 4 3 2 5 5 5 7 8 8 8 1 2 3 3 4 1 3 2 2 3 2 1 2 3

GFSMA_con_lsi_102.txt.gz
Lid_Strength_Index
-1 -1 -1 -1 -1 -1 -1 -1 -1 -1 -1 -1 -1 -1 -1 -1 -1 -1 -1 -2 -2 -2 -1 -1 -1 -2 -1 -1 -1 -1 -1 -1 -1 -1 -2 -2 -2 -1 -1 -1 -1 -1 -2
-1 -1 -1 -0 -1 -1 -1 -1 -1 -1 -1 -1 -1 -1 -1 -1 -1 -1 -1 -2 -2 -2 -2 -1 -1 -2 -1 -1 -1 -1 -1 -1 -1 -1 -1 -2 -2 -2 -1 -1 -2 -1 -1
-1 -1 -1 -0 -1 -1 -2 -1 -1 -1 -1 -1 -1 -1 -1 -1 -1 -1 -1 -1 -1 -2 -2 -2 -2 -2 -1 -1 -1 -1 -1 -1 -1 -1 -1 -1 -2 -2 -2 -2 -1 -1 -1
-2 -1 -0 -0 -1 -1 -1 -1 -0 -0 -0 -0 -0 -0 -0 -1 -1 -1 -1 -1 -1 -1 -2 -2 -2 -2 -2 -1 -1 -1 -1 -1 -1 -1 -1 -1 -1 -1 -1 -2 -2 -2 -1
-1 -0 -0 -0 -1 -0 -0 -0 -0 -0 0 0 0 -0 -0 -0 -0 -1 -1 -1 -2 -1 -1 -2 -1 -1 -1 -1 -1 -1 -1 -1 -1 -1 -1 -1 -1 -1 -1 -1 -1 -1 -1
-1 -1 -1 -1 -0 -0 -0 -0 -0 -0 0 0 0 0 -0 -0 -0 -0 -0 -1 -1 -1 -2 -2 -1 -1 -1 -1 -1 -1 -1 -1 -1 -1 -1 -1 -1 -1 -1 -1 -1 -1 -1
-1 -1 -0 -0 -0 0 -0 -0 0 0 1 -0 0 1 1 -0 -0 -0 -1 -0 -1 -1 -1 -1 -1 -1 -1 -1 -1 -1 -1 -2 -1 -1 -1 -1 -1 -1 -1 -1 -1 -1 -1
-1 -1 -1 -0 -0 0 -0 0 1 1 1 -0 2 2 4 2 1 -0 -0 -0 -1 -1 -1 -1 -1 -1 -1 -1 -1 -0 -1 -1 -1 -1 -1 -1 -1 -2 -1 -1 -1 -1 -1
-1 -1 -1 -0 -0 -0 1 0 0 1 2 1 0 2 4 5 3 1 0 0 -0 -0 -0 -1 -1 -1 -1 -1 -1 -1 -1 -1 -1 -1 -1 -1 -1 -2 -1 -1 -1 -1 -1
-1 -1 -1 -0 -0 -0 0 0 -0 0 0 2 1 1 1 1 4 5 1 0 0 -0 -0 -0 -1 -1 -2 -1 -2 -1 0 -0 -1 -1 -1 -1 -1 -1 -1 -1 -1 -1 -1
-1 -1 -1 -0 -0 -0 -0 -1 -0 0 0 1 1 2 1 2 2 3 4 3 1 0 -0 -1 -0 -1 -1 -1 -1 -1 1 1 0 -0 -0 -1 -1 -1 -2 -1 -1 -1 -1
0 -0 -0 -0 -0 -0 -0 -0 -0 -0 0 0 1 1 2 3 3 3 4 3 3 1 0 -1 -1 -1 -1 -2 -1 0 1 2 2 2 1 0 -1 -1 -1 -1 -1 -1 -1
1 0 -0 -0 0 -0 -0 -0 -0 0 0 1 1 1 1 1 1 1 2 3 3 2 1 0 -1 -1 -1 -1 -1 0 0 2 2 3 3 2 1 -0 -1 -1 -1 -1 -1
1 -1 -0 -0 -0 -0 -0 -1 0 0 -0 0 0 0 1 0 0 1 2 3 5 3 2 2 0 0 -1 -1 -1 1 -1 2 2 4 4 3 3 1 -0 -1 -1 -0 -0
0 -0 -0 -0 -0 -0 -1 -1 0 0 -0 -0 0 0 1 0 0 0 1 1 3 6 4 2 2 -0 -0 -1 -0 -1 -2 1 2 3 3 4 4 2 1 1 0 0 -0
-0 1 -0 -0 -0 -0 -1 -1 0 -0 0 0 0 0 0 0 0 0 1 1 1 2 4 2 1 0 -0 -0 -0 -1 -1 1 3 3 4 4 4 3 2 2 2 1 0
-0 0 -0 -1 -0 -0 -1 -0 -0 -0 0 0 0 0 0 -0 1 0 0 1 1 1 3 2 1 0 0 0 -0 -1 -1 -1 -1 4 4 3 4 4 4 3 3 2 1
-0 -0 -0 -0 -0 -0 -1 -0 0 -0 0 0 0 0 0 0 0 0 1 0 1 1 2 3 2 1 1 0 -0 0 0 -1 -0 2 4 4 5 4 5 4 4 3 3
-0 -0 -0 0 -0 -0 -0 -0 -0 -0 -0 0 0 0 0 0 0 0 0 1 1 1 1 2 2 1 1 0 1 0 0 -0 -0 2 4 4 4 5 5 5 5 5 6
0 0 -0 0 -0 -0 -0 -0 -0 -0 -0 -0 -0 -0 -0 -0 0 0 0 0 0 1 1 2 2 2 1 1 1 2 2 1 1 0 1 2 3 4 5 5 5 5 6
0 -0 0 0 -0 -0 0 -0 -0 -0 -0 -0 -0 -0 -1 -0 1 1 0 -0 0 1 1 2 2 2 2 2 3 2 3 2 1 1 1 0 0 -0 1 4 1 4 6
0 1 1 1 0 1 4 4 1 -0 -0 0 0 -0 -1 0 0 1 2 2 0 1 2 2 2 3 2 1 1 2 3 3 5 0 1 1 -0 0 -0 -1 3 4 6
1 1 1 0 1 0 6 6 4 0 0 0 0 -0 0 -0 0 -0 2 3 3 3 3 1 2 2 2 1 1 2 3 3 3 1 1 2 0 1 -0 -0 5 5 6
1 1 1 1 1 1 7 8 6 0 0 0 -0 -0 0 -0 -0 -0 -0 0 -0 -0 -1 0 0 0 0 -0 -0 1 2 2 2 1 0 3 1 1 -0 -1 7 6 7
1 1 1 1 1 1 7 8 6 0 1 1 0 -0 -0 0 3 6 0 1 0 -0 1 4 6 8 9 8 4 1 3 3 3 3 1 2 1 1 1 0 0 7 7
1 1 1 0 2 1 6 8 5 1 1 1 0 -0 5 1 6 7 0 1 1 1 0 -0 -0 1 5 2 8 2 2 3 3 3 1 2 2 1 3 0 0 -0 -0

GFSMA_con_lsi_105.txt.gz
Lid_Strength_Index
-1 -1 -1 -1 -1 -1 -1 -1 -1 -1 -1 -1 -1 -1 -1 -1 -1 -1 -1 -2 -2 -2 -1 -1 -1 -1 -2 -1 -1 -1 -1 -1 -1 -1 -1 -2 -2 -1 -1 -1 -1 -1 -2
-1 -1 -1 -1 -1 -1 -1 -1 -1 -1 -0 -1 -1 -1 -1 -1 -1 -1 -1 -1 -2 -2 -2 -1 -1 -2 -2 -1 -1 -1 -1 -1 -1 -1 -1 -1 -1 -2 -1 -1 -1 -1 -1
-1 -1 -0 -0 -1 -1 -2 -1 -1 -1 -0 -1 -1 -1 -1 -1 -1 -1 -1 -1 -1 -2 -2 -2 -2 -2 -2 -1 -1 -1 -1 -1 -1 -1 -1 -1 -1 -1 -1 -2 -1 -1 -1
-1 -0 -0 -0 -1 -1 -1 -0 -0 0 0 -0 -0 -0 -0 -1 -1 -1 -1 -1 -1 -1 -2 -2 -2 -2 -2 -1 -1 -1 -1 -1 -1 -1 -1 -1 -1 -1 -1 -1 -1 -1 -1
-1 -0 -0 -0 -1 -0 -0 -0 -0 -0 0 0 0 0 -0 -0 -0 -0 -1 -1 -2 -2 -1 -2 -2 -1 -1 -2 -1 -1 -1 -1 -1 -1 -1 -1 -1 -1 -1 -1 -1 -1 -1
-1 -0 -0 -0 -1 -0 0 0 0 0 0 1 1 1 -0 -0 -1 -0 -0 -0 -1 -1 -2 -2 -1 -0 -0 -1 -1 -1 -1 -1 -1 -1 -1 -1 -1 -1 -1 -1 -1 -1 -1
-1 -0 -0 -0 -0 0 0 -0 0 1 1 0 1 1 1 0 0 0 -0 -0 -0 -1 -1 -1 -1 -1 -1 -1 -1 -1 -1 -1 -1 -1 -1 -1 -1 -1 -1 -1 -1 -1 -1
-1 -0 -0 -0 -0 0 0 0 0 1 1 1 2 3 4 2 1 1 -0 0 -0 -0 -0 -1 -1 -2 -2 -1 -1 -0 -1 -1 -1 -1 -1 -1 -1 -1 -1 -1 -1 -1 -1
-0 -0 -0 -0 -0 0 1 1 0 1 2 1 1 2 4 5 3 1 1 1 0 0 -0 -1 -1 -1 -1 -1 -1 -1 -1 -1 -1 -1 -1 -1 -1 -1 -1 -1 -1 -1 -1
-0 -0 -0 -0 -0 0 0 1 0 1 1 2 1 1 1 1 4 5 2 1 0 0 -0 -0 -1 -1 -2 -1 -2 -1 0 -0 -1 -1 -1 -1 -1 -1 -1 -1 -1 -1 -1
-0 -0 -0 -0 0 0 0 0 0 1 1 1 2 1 1 1 1 3 5 3 1 1 0 0 -0 -1 -2 -2 -2 -0 1 1 0 -0 -0 -1 -1 -1 -1 -1 -1 -1 -1
0 0 0 0 0 0 0 0 0 0 1 1 1 1 2 2 3 3 4 3 3 3 1 0 -0 -1 -1 -2 -2 -0 1 1 2 2 1 0 -0 -1 -1 -1 -1 -1 -1
1 1 0 0 1 0 0 0 0 0 1 1 1 1 1 1 1 2 3 3 4 3 2 0 -0 -1 -1 -2 -1 -1 -0 2 2 2 2 2 1 -0 -0 -1 -1 -1 -1
1 0 0 1 0 0 0 0 0 0 0 1 0 1 1 1 1 1 3 4 5 4 3 2 0 -0 -1 -1 -1 -1 -1 2 3 3 3 3 3 2 1 -0 -0 -0 -0
0 0 1 1 0 0 0 0 1 1 0 0 0 0 1 1 0 0 1 1 3 5 5 2 2 0 -0 -0 -1 -1 -1 1 2 4 4 4 3 3 3 2 1 0 0
0 0 1 1 1 0 0 0 0 0 0 1 1 0 1 1 0 0 1 2 1 3 5 2 1 0 -0 -0 -1 -1 -0 1 2 3 4 4 4 4 3 3 2 1 1
0 0 1 1 1 1 0 0 0 0 0 1 0 1 1 0 1 1 1 1 2 2 4 2 1 -1 -1 -0 -0 -1 -0 -1 -1 4 4 5 5 5 4 4 3 3 2
0 0 1 0 0 0 0 0 1 1 0 1 1 1 1 1 1 1 1 1 1 1 2 3 1 1 1 -0 0 0 0 -0 -0 1 4 4 5 5 5 5 4 4 4
0 0 0 0 0 0 0 0 0 0 0 0 0 1 1 1 1 1 1 1 1 1 1 2 3 1 1 0 0 -0 0 0 -0 1 4 5 5 5 5 5 5 5 6
1 0 0 0 0 0 0 0 0 0 0 0 -0 0 0 1 1 1 1 1 1 1 1 2 2 2 1 0 0 2 2 1 1 0 1 2 4 5 5 6 6 5 6
1 0 0 0 -0 0 0 0 1 0 0 0 -0 -0 -0 0 1 1 1 0 1 1 2 2 2 2 2 2 2 1 2 2 1 1 1 1 1 1 1 5 3 5 5
1 1 1 0 0 1 4 4 1 0 0 1 1 0 -0 0 1 2 2 1 1 1 1 2 2 3 2 2 1 2 2 3 4 0 2 2 0 1 0 -0 3 4 6
1 1 1 1 1 0 5 7 5 0 1 1 1 1 1 0 0 -0 2 3 3 3 2 1 2 2 2 1 1 2 2 2 3 1 2 3 1 2 0 1 5 6 7
2 2 1 1 1 1 5 7 7 0 1 1 0 1 1 0 0 0 0 1 0 -0 0 0 0 1 0 0 1 1 1 1 1 1 1 4 1 2 0 1 7 7 8
1 1 1 1 1 1 6 8 7 2 1 1 1 0 0 1 3 6 0 1 1 0 1 4 4 5 8 9 6 1 2 3 4 3 1 3 2 2 1 0 1 7 8
1 1 1 1 2 1 5 9 6 1 1 1 1 0 5 1 6 8 1 1 2 1 0 -0 -0 1 3 1 9 2 1 3 3 4 2 3 2 2 3 0 0 1 1

GFSMA_con_lsi_108.txt.gz
Lid_Strength_Index
0 -0 -0 -0 -0 -0 -0 -0 -0 0 0 -0 -0 -0 0 -0 -0 -0 -0 -1 -1 -2 -3 -2 -2 -2 -2 -2 -1 -1 -1 -1 -1 -1 -1 -1 -2 -2 -1 -1 -1 -1 -1
0 0 0 0 -0 -0 -0 -0 0 0 0 0 0 0 0 -0 -0 -0 -0 -1 -1 -2 -2 -2 -2 -2 -2 -2 -1 -1 -1 -1 -1 -1 -1 -1 -1 -2 -2 -1 -1 -1 -1
-0 0 0 0 0 -0 -0 -0 0 0 0 0 0 0 0 0 0 -0 -0 -0 -0 -1 -2 -2 -2 -2 -2 -2 -2 -1 -1 -1 -1 -1 -1 -1 -1 -1 -2 -2 -1 -1 -1
-0 -0 0 0 -0 0 0 0 1 1 1 1 1 1 0 0 0 0 -0 -0 -0 -0 -1 -1 -1 -1 -2 -2 -1 -1 -1 -1 -1 -1 -1 -1 -1 -1 -1 -2 -2 -1 -1
-0 -0 0 0 -0 0 0 1 1 1 1 1 1 1 1 1 1 0 0 0 -0 -0 -0 -1 -1 -1 -1 -1 -1 -1 -1 -1 -1 -1 -1 -1 -1 -1 -1 -1 -1 -1 -1
-0 0 0 0 0 0 1 1 1 1 1 1 1 1 1 1 0 1 1 0 0 -0 -0 -0 -0 -0 -1 -1 -1 -1 -1 -1 -1 -1 -1 -1 -1 -1 -1 -1 -1 -1 -1
0 0 0 0 0 1 1 1 1 1 2 1 2 2 2 1 1 1 0 0 0 0 0 -0 -0 -0 -0 -0 -1 -1 -1 -1 -1 -1 -1 -1 -1 -1 -1 -1 -1 -1 -1
0 0 0 1 1 1 1 1 1 2 2 1 3 3 5 4 2 1 1 1 1 0 0 -0 -0 -0 -0 1 -0 -1 -1 -1 -1 -1 -1 -1 -1 -1 -1 -1 -1 -1 -1
0 0 0 1 1 1 1 1 1 2 3 2 2 3 6 6 4 2 2 1 1 1 1 0 0 0 -0 -0 -0 -0 -0 -1 -1 -1 -1 -1 -1 -1 -1 -1 -1 -1 -1
0 0 0 0 1 1 1 1 1 1 2 3 2 1 2 3 5 6 3 2 1 1 1 1 0 0 -0 -0 -1 -1 1 0 -1 -1 -1 -1 -1 -1 -1 -1 -1 -1 -1
0 0 0 1 1 1 1 1 1 1 1 2 3 3 2 2 3 4 6 4 2 1 1 0 2 3 4 -0 0 0 1 1 0 0 -0 -0 -1 -1 -1 -1 -1 -1 -1
1 1 1 1 1 1 1 1 1 1 1 2 1 2 3 4 4 4 5 5 4 3 1 1 3 2 1 3 -1 0 1 1 2 2 1 1 -0 -0 -1 -1 -1 -1 -1
1 1 1 1 1 1 1 1 1 1 1 2 2 2 2 2 2 3 4 4 5 3 2 1 1 1 1 -0 -1 0 -0 2 2 3 2 2 1 0 -0 -0 -1 -1 -1
1 1 1 1 2 2 0 1 2 1 1 1 2 2 2 2 2 2 3 4 5 5 3 3 1 2 2 0 -0 0 0 1 2 3 3 2 2 1 1 1 0 0 -0
1 1 1 1 3 3 3 3 1 3 2 1 1 1 2 1 1 1 2 2 4 6 6 3 3 0 0 0 -0 0 0 0 2 2 3 4 4 3 3 2 2 1 1
1 1 1 1 3 4 3 1 2 2 1 3 1 2 2 1 1 1 2 2 2 4 6 3 2 1 0 0 0 0 0 1 1 2 3 4 4 5 4 4 3 2 2
1 1 1 1 2 2 2 1 2 1 2 4 1 2 2 1 2 2 1 2 2 3 5 3 2 1 1 1 1 0 0 0 0 3 3 4 5 5 5 5 4 3 3
1 1 1 1 1 1 1 1 2 3 2 2 1 2 2 1 2 2 2 2 2 3 3 5 3 2 2 1 1 1 0 0 0 2 4 4 5 6 5 5 5 4 4
1 1 1 1 1 1 1 1 1 1 2 1 2 2 2 2 2 2 2 2 2 3 3 3 3 2 2 1 1 1 1 1 0 2 4 4 5 5 5 6 5 5 6
1 1 2 3 1 1 1 1 1 1 1 1 1 1 1 2 2 2 2 2 2 2 2 3 3 3 2 2 2 3 3 1 2 0 1 2 4 4 5 6 5 5 7
1 1 1 2 2 1 1 1 1 1 2 2 1 1 1 1 2 2 2 2 2 3 3 3 4 3 3 3 3 2 3 2 2 1 1 1 2 2 3 5 3 4 6
1 1 1 1 4 2 4 4 2 1 1 2 2 1 1 1 2 4 4 4 3 2 3 4 4 4 4 3 2 3 3 4 5 1 2 2 1 2 1 1 4 5 6
2 2 2 1 2 2 4 5 5 1 2 2 2 2 2 1 1 1 3 3 2 3 2 2 3 3 3 3 2 3 3 3 3 2 2 3 1 2 0 0 5 6 6
2 2 2 2 2 1 4 6 5 1 1 1 1 1 2 1 1 1 1 2 1 1 2 2 1 1 1 1 2 2 2 2 2 1 1 4 2 2 1 0 5 7 7
2 2 2 2 2 2 4 7 6 2 2 2 1 1 1 1 4 5 2 2 2 2 3 3 3 4 6 7 6 1 3 3 4 3 2 3 2 3 2 2 4 7 9
2 2 2 2 2 2 5 7 6 2 2 2 1 1 6 2 7 8 2 2 3 2 2 1 2 4 6 3 7 2 1 4 4 5 2 3 3 3 4 1 3 5 6

GFSMA_con_lsi_111.txt.gz
Lid_Strength_Index
1 1 0 0 0 0 0 0 0 1 1 1 1 0 1 1 0 1 2 -2 -1 -1 -2 -2 -2 -2 -2 -2 -1 -1 -1 -1 -1 -1 -1 -1 -2 -2 -2 -1 -1 -1 -1
0 0 0 0 0 0 0 0 0 0 0 0 0 0 0 1 1 0 0 0 -1 -1 -2 -2 -2 -2 -2 -1 -1 -1 -1 -1 -1 -1 -1 -1 -1 -2 -2 -1 -1 -1 -1
1 0 0 1 1 1 1 0 0 0 1 1 1 1 1 1 0 0 1 0 -0 -1 -2 -2 -1 -1 -1 -1 -1 -1 -1 -1 -1 -1 -1 -1 -1 -1 -2 -2 -2 -1 -1
0 0 1 1 0 1 0 1 1 1 1 1 1 3 1 1 0 1 0 0 0 -0 -1 -1 -1 -1 -1 -1 -1 -1 -1 -1 -1 -1 -1 -1 -1 -1 -1 -1 -2 -1 -1
-0 1 0 1 0 0 1 2 2 2 3 3 3 3 1 1 1 1 1 1 1 0 0 -1 -1 -1 -1 -1 -1 -1 -1 -1 -1 -1 -1 -1 -1 -1 -1 -1 -1 -1 -1
0 0 0 1 0 1 1 1 2 2 2 2 1 2 1 1 1 1 1 0 0 0 1 1 -0 -0 -1 -1 -1 -1 -1 -1 -1 -1 -1 -1 -1 -1 -1 -1 -1 -1 -1
-0 0 0 1 1 1 1 1 1 2 2 2 3 3 2 1 1 1 1 1 1 0 0 0 -0 0 -0 -0 -0 -1 -1 -1 -1 -1 -1 -0 -1 -1 -1 -1 -1 -1 -1
0 0 1 1 1 1 1 2 2 3 2 2 3 4 6 4 2 1 1 1 1 0 1 0 1 0 0 -0 -0 -0 -1 -1 -1 -1 -1 -0 -1 -1 -1 -1 -1 -1 -1
1 1 1 1 1 1 1 1 1 2 3 3 2 3 6 7 5 2 2 1 1 1 1 0 1 0 -0 0 1 1 -0 -0 -1 -1 -1 -1 -1 -1 -1 -1 -1 -1 -1
2 0 0 0 1 1 1 1 1 2 4 3 2 2 2 3 6 6 3 2 1 1 1 2 1 3 3 2 2 2 3 2 -1 -1 -0 -1 -1 -1 -1 -1 -1 -1 -1
3 3 2 0 4 1 1 1 1 1 2 2 2 3 3 3 4 5 6 4 3 2 2 1 2 3 2 1 1 1 2 1 2 0 0 -0 -0 -1 -1 -1 -1 -1 -1
1 1 0 3 3 1 1 2 3 2 1 1 2 2 3 4 4 4 5 5 5 4 2 2 3 2 2 1 -0 2 1 2 2 2 2 1 0 -0 -0 -1 -1 -1 -1
2 2 1 1 1 2 3 4 5 4 2 2 4 5 5 2 2 3 4 5 5 4 4 3 2 2 1 1 0 -0 0 2 2 2 3 2 1 0 0 -0 -0 -1 -1
1 1 1 1 1 1 2 2 5 4 1 1 2 2 3 2 3 2 3 4 6 6 6 5 3 1 3 3 1 -0 0 1 2 2 2 2 2 1 0 0 0 0 0
1 1 2 3 2 1 2 2 3 3 1 2 2 2 3 2 3 6 2 3 5 7 6 4 3 2 2 1 -0 0 -0 0 2 2 2 3 2 2 3 2 1 1 1
1 1 1 1 2 4 4 4 4 4 3 3 2 2 2 1 2 2 2 3 4 5 6 4 4 2 1 0 -0 -0 -0 1 1 2 2 2 4 4 4 4 3 3 2
1 1 1 1 1 4 5 6 6 4 3 3 2 3 3 1 2 1 2 3 4 5 6 5 3 2 3 1 1 -0 0 0 0 2 2 4 5 5 4 3 4 4 3
1 2 2 2 3 2 3 4 5 3 2 3 4 4 3 1 2 1 2 3 4 5 6 6 5 4 3 2 1 1 1 -0 0 2 3 4 5 5 5 5 5 5 5
1 1 3 2 2 3 1 1 2 2 3 3 4 3 2 2 2 2 2 3 4 3 5 5 5 3 2 1 2 2 2 2 0 1 3 4 4 5 4 5 6 5 6
1 1 1 2 2 2 1 1 1 3 3 3 3 2 1 2 2 2 2 2 3 4 5 4 4 4 3 3 3 3 3 3 2 0 1 2 2 3 4 5 5 5 7
1 1 1 2 1 2 2 4 3 2 2 2 2 1 1 1 1 2 2 3 3 3 4 4 5 6 5 5 4 3 4 3 2 1 2 2 1 1 1 5 4 4 6
2 1 2 2 2 1 4 6 3 3 2 2 2 2 1 3 4 5 5 5 3 4 4 6 7 7 5 3 4 4 4 5 5 3 3 3 2 1 1 1 4 5 7
3 2 2 3 3 3 4 5 5 3 3 2 2 3 2 2 3 3 5 6 6 6 4 3 4 3 4 3 3 4 4 4 4 2 2 3 2 2 1 0 5 6 7
4 3 3 2 3 2 5 5 4 3 3 2 2 2 3 3 2 2 5 6 4 4 4 2 3 3 2 2 2 2 3 4 3 3 2 5 3 2 1 1 4 6 7
5 4 3 2 3 3 5 6 4 2 3 2 2 2 2 2 4 5 2 3 2 2 3 5 5 5 4 5 5 3 4 4 4 5 3 3 3 3 2 2 2 6 7
5 4 4 3 2 3 5 7 5 2 2 3 3 2 7 4 7 7 2 2 3 3 2 3 4 5 6 5 7 3 2 4 4 4 2 4 4 3 4 2 3 6 6

GFSMA_con_lsi_114.txt.gz
Lid_Strength_Index
1 1 1 0 0 0 0 0 0 0 0 0 2 2 2 2 2 1 2 -1 -1 -1 -2 -2 -2 -2 -2 -2 -1 -1 -1 -1 -1 -1 -1 -1 -2 -1 -1 -1 -1 -1 -1
1 1 1 1 1 0 -0 0 0 0 0 1 1 1 1 1 1 1 2 0 -1 -1 -1 -2 -2 -2 -2 -1 -1 -1 -1 -1 -1 -1 -1 -1 -1 -1 -1 -1 -1 -1 -1
1 1 1 1 1 0 0 1 2 1 1 0 1 0 0 0 1 1 1 1 0 -1 -1 -1 -1 -1 -1 -1 -1 -1 -1 -1 -1 -1 -1 -1 -1 -1 -1 -1 -1 -1 -1
0 2 1 1 1 1 1 2 2 2 1 1 1 1 1 1 1 1 1 1 1 0 -1 -1 -1 -1 -1 -1 -1 -1 -1 -1 -1 -1 -1 -1 -1 -1 -1 -1 -1 -1 -1
-0 1 1 0 1 1 1 2 2 2 2 2 2 2 2 3 2 1 1 1 1 1 1 -0 -1 -1 -1 -1 -1 -1 -1 -1 -1 -1 -1 -1 -1 -1 -1 -1 -1 -1 -1
0 0 0 1 1 2 2 2 2 3 3 2 2 2 2 3 2 0 0 1 2 1 1 1 1 -0 -1 -1 -1 -1 -1 -1 -1 -1 -1 -1 -1 -1 -1 -1 -1 -1 -1
1 1 0 1 1 1 1 2 2 2 2 3 3 3 3 1 1 1 1 1 1 1 1 1 1 1 0 -0 -0 -1 -1 -1 -1 -1 -1 -0 -1 -1 -1 -1 -1 -1 -1
1 1 1 1 1 1 2 2 2 2 2 2 3 4 5 4 2 1 1 1 1 1 1 0 0 1 1 1 -0 -1 -1 -1 -1 -1 -1 -0 -1 -1 -1 -1 -1 -1 -1
0 1 1 1 1 1 1 1 1 2 3 3 2 3 6 7 5 2 2 1 2 2 1 0 1 1 0 1 1 1 1 1 0 -0 -0 0 -1 -1 -1 -1 -1 -1 -1
0 0 1 1 2 2 1 1 1 1 2 3 3 2 2 3 6 6 3 2 2 2 1 1 2 2 2 2 1 1 1 -0 -0 0 -0 0 0 -0 -1 -1 -1 -1 -1
0 0 0 3 3 1 1 1 1 1 1 2 3 3 3 2 3 4 6 4 3 2 1 1 2 3 2 1 2 2 1 1 1 0 -0 -1 -0 -1 -0 -1 -1 -1 -1
1 1 0 3 3 3 2 1 1 1 1 1 2 2 4 4 5 4 6 4 4 3 3 3 3 3 2 2 0 1 2 2 1 1 0 0 -1 -1 -0 -1 -1 -1 -1
3 3 2 1 1 1 1 2 2 1 1 2 2 2 4 4 4 4 4 5 5 4 2 4 3 3 2 2 1 -0 -0 1 2 1 2 2 0 0 0 -0 -0 -0 -1
2 2 2 1 1 1 0 1 1 2 2 2 3 2 3 6 4 2 3 5 6 4 4 4 4 3 3 1 1 1 0 2 2 3 3 3 2 1 1 0 0 0 0
1 1 1 1 1 1 1 1 1 2 3 4 2 2 3 3 2 1 2 3 4 6 7 3 5 2 3 3 1 1 1 1 1 2 3 3 3 2 2 2 1 2 1
2 2 1 1 1 1 2 2 2 2 5 5 3 3 3 3 3 2 3 3 3 4 6 3 4 2 2 1 -0 0 0 1 2 2 3 2 3 3 3 4 3 3 2
2 2 1 1 1 2 1 3 3 3 5 6 4 3 3 3 3 2 2 2 2 2 5 3 4 4 4 2 2 1 1 1 1 3 3 3 4 5 5 5 5 4 3
3 2 1 1 1 1 1 2 3 4 4 5 4 4 3 3 3 2 2 2 2 2 3 4 5 4 4 3 2 1 1 0 2 2 2 3 4 4 5 5 5 5 5
4 3 1 1 1 1 1 1 2 2 3 3 3 3 4 4 3 3 2 2 3 3 4 5 5 5 4 3 2 2 3 2 1 1 3 4 4 4 5 5 5 6 7
2 2 2 1 1 1 1 1 1 2 2 3 2 3 2 3 3 3 2 2 2 4 4 4 5 5 5 4 4 4 4 3 3 1 1 2 3 4 5 5 4 5 7
2 2 2 1 1 1 1 2 2 2 2 3 3 3 3 2 2 2 2 3 3 4 4 4 5 7 6 6 6 4 4 4 3 2 2 2 2 2 2 3 3 4 7
4 3 3 2 2 1 3 4 3 2 2 2 2 2 2 2 2 3 3 4 3 3 4 5 7 8 7 6 5 4 4 5 5 3 4 3 2 1 2 1 3 6 7
6 6 5 3 2 2 3 5 5 2 2 2 3 2 2 1 2 1 3 5 6 6 5 6 7 8 6 5 4 4 4 4 4 3 3 4 2 3 2 0 6 7 8
7 7 6 5 5 3 3 4 5 3 2 2 1 2 2 2 2 3 4 6 6 7 6 4 5 4 3 3 2 3 3 4 4 4 4 4 4 4 2 1 7 7 8
7 7 6 5 5 3 4 5 6 3 2 2 1 2 2 2 5 8 6 7 7 7 4 5 5 5 5 6 3 4 4 4 5 5 3 3 4 3 3 2 3 7 8
6 6 6 5 5 4 4 5 5 2 3 2 2 2 5 3 8 8 5 7 6 4 2 4 5 5 5 4 8 5 4 4 5 5 3 4 4 4 4 2 2 4 6

GFSMA_con_lsi_117.txt.gz
Lid_Strength_Index
1 0 1 1 1 0 0 0 0 0 0 0 0 0 2 3 2 2 2 -1 -1 -1 -2 -2 -2 -2 -2 -2 -1 -1 -1 -1 -1 -1 -1 -1 -1 -1 -1 -1 -1 -1 -1
0 1 1 1 1 1 0 0 0 0 1 0 0 0 2 2 1 2 1 1 -1 -1 -1 -2 -1 -1 -2 -2 -1 -1 -1 -1 -1 -1 -1 -1 -1 -1 -1 -1 -1 -1 -1
1 1 2 2 2 2 2 1 1 2 2 1 1 0 0 0 0 1 1 2 2 -1 -1 -1 -1 -1 -1 -1 -1 -1 -1 -1 -1 -1 -1 -1 -1 -1 -1 -1 -1 -1 -1
0 2 2 2 2 3 2 2 2 2 2 3 1 1 1 0 0 1 1 2 1 1 -0 -1 -1 -1 -1 -1 -1 -1 -1 -1 -1 -1 -1 -1 -1 -1 -1 -1 -1 -1 -1
-0 1 1 1 2 2 2 2 2 2 2 3 2 2 1 1 1 1 1 1 2 1 1 -0 -1 -1 -1 -1 -1 -1 -1 -1 -1 -1 -1 -1 -1 -1 -1 -1 -1 -1 -1
1 1 0 2 2 2 1 2 2 2 2 2 2 2 3 2 2 1 1 1 1 0 1 1 1 0 -1 -1 -1 -1 -1 -1 -1 -1 -1 -1 -1 -1 -1 -1 -1 -1 -1
2 1 1 1 2 2 1 2 2 2 2 3 4 4 3 2 2 2 1 1 0 0 1 1 2 1 1 -1 -0 -1 -1 -1 -1 -1 -1 -0 -1 -1 -1 -1 -1 -1 -1
1 1 2 1 1 1 2 2 2 2 2 2 3 4 5 4 2 1 1 1 1 0 1 1 1 1 1 1 0 -1 -1 -1 -1 -1 -0 0 -0 -1 -1 -1 -1 -1 -1
0 0 0 1 1 1 1 2 1 2 3 2 2 3 6 7 4 2 2 1 2 1 0 1 1 0 1 1 -0 -0 -1 -1 -1 -1 -1 -1 -1 -1 -1 -1 -1 -1 -1
0 0 0 1 1 2 2 1 1 1 2 3 3 2 2 3 6 6 3 2 2 2 2 0 0 0 1 1 0 0 0 -0 -1 -1 -1 -1 -1 -1 -1 -1 -1 -1 -1
0 0 0 1 1 2 2 2 2 1 1 2 3 3 3 3 3 5 6 4 2 2 1 1 1 0 2 2 2 2 1 1 0 -0 -0 -1 -1 -1 -1 -1 -1 -1 -1
2 1 1 1 2 2 2 2 2 3 2 2 2 2 3 4 4 4 5 5 4 3 2 1 1 0 1 1 1 1 2 2 2 1 0 0 -0 -1 -1 -1 -1 -1 -1
2 1 1 2 2 2 2 2 3 3 3 2 2 3 3 3 2 3 4 5 6 4 3 1 1 1 1 1 1 0 1 2 2 2 1 0 0 -0 -1 -1 -1 -0 -1
2 1 1 1 1 0 1 1 1 2 2 2 2 2 2 2 1 2 3 5 7 6 5 3 3 3 1 2 1 0 0 1 1 2 3 2 2 1 -0 -0 -1 -0 -0
2 2 2 2 1 1 1 1 1 1 1 1 1 2 2 2 2 2 4 5 6 7 6 5 4 2 0 1 1 1 1 1 1 3 3 3 3 2 2 1 1 1 0
2 2 2 3 3 2 2 1 1 1 1 1 2 2 3 2 3 3 3 4 4 4 6 4 3 2 0 1 1 1 2 1 1 3 2 3 4 4 3 3 3 3 3
3 3 2 3 3 3 3 3 3 2 2 2 3 3 3 3 3 3 4 4 3 4 5 4 2 2 1 1 1 2 0 1 1 2 2 3 4 4 4 4 4 4 3
3 2 2 2 2 2 2 3 2 2 2 2 2 3 3 2 4 4 5 4 3 2 3 4 3 3 3 3 3 4 2 0 0 1 3 4 4 4 4 4 5 5 5
3 3 2 1 1 1 2 2 1 2 2 2 2 2 2 3 4 5 4 3 2 2 2 3 4 5 4 4 4 3 2 2 2 1 3 4 5 5 4 5 6 6 6
4 4 3 1 1 1 1 1 1 2 1 2 2 1 2 2 3 4 3 3 2 3 3 4 4 4 4 4 3 4 5 4 4 2 2 2 3 4 5 5 5 4 5
4 4 4 4 3 2 1 2 2 2 2 2 1 1 1 1 2 3 3 3 2 3 3 4 4 5 5 6 6 5 5 4 4 3 3 3 3 2 3 4 3 3 4
6 5 5 5 5 3 4 4 2 3 2 2 2 2 1 2 3 4 4 3 2 3 3 3 4 4 6 7 6 6 5 6 8 5 5 4 3 4 3 1 2 4 7
7 7 7 7 7 6 5 5 4 2 2 2 2 2 2 1 3 2 4 4 5 5 4 3 5 6 7 6 6 7 6 6 6 4 4 5 4 3 2 1 5 7 8
8 7 7 7 7 6 6 7 5 4 3 2 2 2 2 2 2 2 2 3 2 2 3 3 3 6 6 5 3 4 5 6 5 4 4 4 5 4 2 2 7 8 9
9 8 7 7 7 6 6 7 6 4 3 2 1 1 1 2 3 6 2 3 3 3 6 7 8 8 7 6 4 3 4 5 5 5 4 4 5 4 4 3 4 8 8
8 7 7 7 6 6 6 7 6 4 3 2 2 2 4 3 6 8 2 4 5 6 6 6 6 6 6 6 6 4 4 4 5 5 4 5 5 4 4 3 2 4 6

GFSMA_con_lsi_123.txt.gz
Lid_Strength_Index
-0 -1 -1 -1 -1 -1 -1 -1 -1 -1 -1 -1 -1 -1 -1 -1 -2 -1 -1 -2 -1 -1 -1 -1 -1 -2 -1 -2 -2 -1 -1 -1 -1 -1 -1 -1 -1 -1 -1 -1 -1 -1 -1
-1 -0 -0 -0 -1 -1 -1 -1 -1 -0 -0 -1 -1 -1 -1 -1 -1 -2 -1 -2 -1 -1 -1 -1 -1 -2 -1 -2 -2 -2 -2 -1 -1 -1 -1 -1 -1 -1 -1 -1 -1 -1 -1
-1 -1 -0 -0 -1 -1 -1 -1 -1 -1 -0 -0 -0 -1 -1 -1 -1 -1 -1 -2 -1 -1 -1 -1 -2 -2 -1 -1 -2 -1 -2 -1 -1 -1 -1 -1 -1 -1 -1 -1 -1 -1 -1
-1 -1 -0 0 -1 -1 -1 -0 -0 0 0 0 0 -0 -0 -1 -1 -1 -1 -1 -1 -1 -1 -1 -2 -1 -2 -2 -1 -1 -1 -1 -1 -1 -1 -1 -1 -1 -1 -1 -1 -1 -1
-1 -1 -0 -0 -1 -0 -0 -0 0 0 1 0 0 0 -0 -0 -0 -0 -1 -1 -1 -1 -1 -1 -1 -1 -1 -1 -1 -2 -1 -1 -1 -1 -1 -1 -1 -1 -1 -1 -1 -1 -1
-1 -1 -1 -1 -1 -0 0 0 0 0 0 1 1 1 0 0 -0 0 -0 -1 -1 -1 -1 -1 -1 -1 -1 -1 -1 -1 -1 -1 -0 -1 -1 -1 -1 -1 -1 -1 -1 -1 -1
-1 -1 -0 -0 -1 0 0 -0 0 1 1 0 1 2 1 0 0 0 -0 -0 -0 -1 -1 -1 -1 -1 -1 -1 -1 -1 -1 -1 -1 -1 -0 -0 -0 -1 -1 -1 -1 -1 -1
-1 -1 -0 -0 -0 0 0 0 0 1 1 0 2 2 4 3 1 0 -0 0 -0 -0 -0 -1 -1 -1 -1 -1 -1 -1 -1 -1 -1 -1 -0 0 -0 -1 -1 -1 -1 -1 -1
-1 -1 -1 -0 -0 -0 1 0 0 1 2 1 1 2 5 6 3 1 1 0 0 0 -0 -0 -1 -1 -2 -1 -1 -1 -1 -1 -1 -1 -0 -0 -0 -1 -1 -1 -1 -1 -1
-1 -1 -1 -1 -1 -0 0 0 0 1 1 3 1 1 1 2 5 5 2 1 0 1 0 -0 -0 -1 -1 -1 -2 -1 0 -0 -1 -1 -1 -0 -1 -1 -1 -1 -1 -1 -1
-1 -1 -1 -1 -0 -0 -0 -0 -0 0 1 1 2 2 2 2 2 4 5 3 1 1 0 0 -0 -0 -1 -1 -1 -1 0 0 0 0 -0 -0 -1 -1 -1 -1 -1 -1 -1
-0 -1 -1 -1 -1 -1 -0 -0 -0 -0 0 0 1 1 2 3 3 4 5 4 3 2 1 0 0 -0 -1 -1 -1 -1 1 1 1 1 1 0 -0 -0 -1 -1 -1 -1 -1
1 -0 -1 -0 -0 -1 -1 -1 -0 -0 0 1 1 1 1 2 1 2 3 4 4 2 2 0 0 -0 -0 -1 -1 -1 -0 1 1 2 2 2 1 -0 -0 -1 -1 -1 -1
0 -1 -1 -1 -1 -1 -1 -1 -0 -0 -0 0 1 1 1 1 1 1 2 3 5 4 2 2 0 -0 -0 -1 -1 -0 -1 1 1 3 3 2 2 1 0 0 -0 -0 -0
-0 -1 -1 -0 -1 -1 -1 -1 -0 0 -0 -0 0 0 1 1 0 1 1 2 4 6 5 2 2 -0 -0 -1 -1 -1 -1 0 1 2 3 3 3 2 2 1 1 0 1
-0 -0 -0 -0 -0 -0 -1 -0 -0 -1 0 0 0 0 0 0 0 0 1 1 2 3 5 2 1 0 -0 -0 -1 -1 -1 0 1 1 2 3 3 2 3 2 2 1 1
-0 0 -0 -0 0 -0 -0 -0 0 -0 0 0 -0 0 0 -0 1 1 1 1 2 2 4 3 1 0 0 0 -0 -1 -1 -1 -1 2 2 3 3 4 4 4 3 3 2
1 1 0 1 0 0 -0 0 0 1 1 1 1 0 0 0 0 0 1 1 2 2 3 4 2 1 1 -0 -0 -0 -0 -1 -1 2 3 3 3 5 5 5 4 4 4
3 3 3 3 2 1 0 0 0 1 1 1 1 0 0 0 1 1 1 2 2 1 2 3 3 1 1 0 0 0 0 -0 -0 1 3 3 4 4 4 5 5 5 6
3 3 3 3 2 2 2 1 0 1 1 0 0 0 0 0 1 1 1 1 1 2 2 3 3 2 2 1 1 2 2 1 1 -0 0 1 2 3 4 5 5 5 6
3 3 3 3 2 2 2 1 1 0 1 1 0 0 0 0 1 1 1 1 2 2 3 3 3 3 3 2 2 1 2 2 1 -0 0 -0 -0 -0 -0 4 2 4 6
3 2 3 3 2 2 4 4 2 1 1 1 1 0 0 1 1 2 2 2 1 2 3 3 3 4 3 2 1 2 2 2 3 -1 1 1 -0 0 -0 -1 2 5 6
3 3 3 3 4 3 5 6 6 3 2 2 2 1 1 1 2 1 2 3 3 4 3 2 3 3 2 1 1 2 2 2 2 1 0 2 -0 0 -1 -0 4 5 6
7 6 6 6 5 5 8 8 8 6 4 2 2 3 3 3 3 3 2 1 1 1 1 1 1 1 0 0 0 1 2 1 1 0 -0 3 0 1 -0 -1 5 7 8
9 9 9 9 8 8 9 10 10 7 7 5 4 3 4 4 5 6 2 2 1 1 2 4 4 5 7 7 3 1 2 3 3 2 0 1 1 1 -0 0 1 7 8
12 12 11 11 10 9 10 11 10 8 8 6 4 3 6 4 6 6 1 2 2 2 2 1 1 4 5 4 6 0 1 3 3 3 1 2 2 1 3 0 -0 -0 -1